Missouri River (Missouri), Rulo (06813500)

StateMissouriLatestUnknown (43000 cfs)
RiverMissouri RiverRatingObservedEstimated
Updated2020-08-14 5:30 (52 minutes ago)Flood - The river is flooding. Obstacles can be treacherous or deadly. The river should be avoided at this stage for casual trips and definitely for the inexperienced. Trips should be attempted only with protective gear and equipment.Flood(none)(none)
Discharge43000 cfs (median: 40700 cfs)High - The river is high and potentially dangerous, especially for the young and / or inexperienced. Normal stream obstacles are sometimes difficult to navigate. Extended distances can be attempted, but canoe travel may not be advisable.High(none)(none)
Height8.68 feetGood - Conditions are ideal for a canoe or kayak. Boats typically will drag on fewer than one-quarter of riffles, if at all, and portages are unnecessary or rare. Normal float lengths can be attempted without a problem.Good(none)(none)
TrendSteady (falling over 24 hours)Low - River is low but can still be floated. Some riffles are okay but most come with significant dragging and might need a portage. Float lengths should be reduced to accommodate low flow, dragging, and portages.Low(none)(none)
USGSExternal icon USGS Site (External icon Google Maps)Poor - River is too low to float comfortably. Most or all riffles will drag or must be portaged and some obstacles (such as slick shelf rock) cause undue problems. Avoid the river at this stage for casual paddling trips.Poor(none)(none)

Trending Data

Plot Image

Trips for Missouri River (Missouri), Rulo (06813500)

DateStartEndDistanceConditionDischargeHeightFishingDetails

A total of 0 rows are displayed.

Condition Descriptions

Fishing Conditions

Fish Species

Notes

Classic Trip List

The classic River Trips application is still available for use. It is updated with the new system using a data retrofit. It is no longer maintained. The original River Trips application is no longer updated (as of 1 Dec 2016) but can be checked for errors or for the condition of the data before it was converted to the new system.

Gauge Data Table

ObservationHeightDischargeMaximum
Discharge
Minimum
Discharge
Mean
Discharge
P05P10P20P25P50
(Median)
P75P80P90P95
2020-08-14 05:30 8.68 43000 182000 (2011) 28900 (2013) 47400 30300 32300 34600 35300 40700 50400 56600 72800 87500
2020-08-14 04:30 8.68 43000 182000 (2011) 28900 (2013) 47400 30300 32300 34600 35300 40700 50400 56600 72800 87500
2020-08-14 03:30 8.72 43200 182000 (2011) 28900 (2013) 47400 30300 32300 34600 35300 40700 50400 56600 72800 87500
2020-08-14 02:30 8.71 43200 182000 (2011) 28900 (2013) 47400 30300 32300 34600 35300 40700 50400 56600 72800 87500
2020-08-14 01:30 8.72 43200 182000 (2011) 28900 (2013) 47400 30300 32300 34600 35300 40700 50400 56600 72800 87500
2020-08-14 00:30 8.71 43200 182000 (2011) 28900 (2013) 47400 30300 32300 34600 35300 40700 50400 56600 72800 87500
2020-08-13 23:30 8.70 43100 181000 (2011) 29000 (2013) 47500 30600 33000 34300 34800 40400 52000 58200 69400 89000
2020-08-13 22:30 8.71 43200 181000 (2011) 29000 (2013) 47500 30600 33000 34300 34800 40400 52000 58200 69400 89000
2020-08-13 21:30 8.70 43100 181000 (2011) 29000 (2013) 47500 30600 33000 34300 34800 40400 52000 58200 69400 89000
2020-08-13 20:30 8.71 43200 181000 (2011) 29000 (2013) 47500 30600 33000 34300 34800 40400 52000 58200 69400 89000
2020-08-13 19:30 8.68 43000 181000 (2011) 29000 (2013) 47500 30600 33000 34300 34800 40400 52000 58200 69400 89000
2020-08-13 18:30 8.72 43200 181000 (2011) 29000 (2013) 47500 30600 33000 34300 34800 40400 52000 58200 69400 89000
2020-08-13 17:30 8.73 43300 181000 (2011) 29000 (2013) 47500 30600 33000 34300 34800 40400 52000 58200 69400 89000
2020-08-13 16:30 8.75 43400 181000 (2011) 29000 (2013) 47500 30600 33000 34300 34800 40400 52000 58200 69400 89000
2020-08-13 15:30 8.75 43400 181000 (2011) 29000 (2013) 47500 30600 33000 34300 34800 40400 52000 58200 69400 89000
2020-08-13 14:30 8.74 43300 181000 (2011) 29000 (2013) 47500 30600 33000 34300 34800 40400 52000 58200 69400 89000
2020-08-13 13:30 8.75 42900 181000 (2011) 29000 (2013) 47500 30600 33000 34300 34800 40400 52000 58200 69400 89000
2020-08-13 12:30 8.80 43200 181000 (2011) 29000 (2013) 47500 30600 33000 34300 34800 40400 52000 58200 69400 89000
2020-08-13 11:30 8.79 43100 181000 (2011) 29000 (2013) 47500 30600 33000 34300 34800 40400 52000 58200 69400 89000
2020-08-13 10:30 8.79 43100 181000 (2011) 29000 (2013) 47500 30600 33000 34300 34800 40400 52000 58200 69400 89000
2020-08-13 09:30 8.81 43200 181000 (2011) 29000 (2013) 47500 30600 33000 34300 34800 40400 52000 58200 69400 89000
2020-08-13 08:30 8.82 43300 181000 (2011) 29000 (2013) 47500 30600 33000 34300 34800 40400 52000 58200 69400 89000
2020-08-13 07:30 8.84 43400 181000 (2011) 29000 (2013) 47500 30600 33000 34300 34800 40400 52000 58200 69400 89000
2020-08-13 06:30 8.86 43500 181000 (2011) 29000 (2013) 47500 30600 33000 34300 34800 40400 52000 58200 69400 89000
2020-08-13 05:30 8.87 43500 181000 (2011) 29000 (2013) 47500 30600 33000 34300 34800 40400 52000 58200 69400 89000
2020-08-13 04:30 8.87 43500 181000 (2011) 29000 (2013) 47500 30600 33000 34300 34800 40400 52000 58200 69400 89000
2020-08-13 03:30 8.88 43600 181000 (2011) 29000 (2013) 47500 30600 33000 34300 34800 40400 52000 58200 69400 89000
2020-08-13 02:30 8.89 43600 181000 (2011) 29000 (2013) 47500 30600 33000 34300 34800 40400 52000 58200 69400 89000
2020-08-13 01:30 8.87 43500 181000 (2011) 29000 (2013) 47500 30600 33000 34300 34800 40400 52000 58200 69400 89000
2020-08-13 00:30 8.88 43600 181000 (2011) 29000 (2013) 47500 30600 33000 34300 34800 40400 52000 58200 69400 89000
2020-08-12 23:30 8.90 43700 180000 (2011) 29200 (2013) 47800 31200 33200 34600 35300 40800 50800 56700 69100 91400
2020-08-12 22:30 8.89 43600 180000 (2011) 29200 (2013) 47800 31200 33200 34600 35300 40800 50800 56700 69100 91400
2020-08-12 21:30 8.89 43600 180000 (2011) 29200 (2013) 47800 31200 33200 34600 35300 40800 50800 56700 69100 91400
2020-08-12 20:30 8.91 43700 180000 (2011) 29200 (2013) 47800 31200 33200 34600 35300 40800 50800 56700 69100 91400
2020-08-12 19:30 8.89 43600 180000 (2011) 29200 (2013) 47800 31200 33200 34600 35300 40800 50800 56700 69100 91400
2020-08-12 18:30 8.85 43400 180000 (2011) 29200 (2013) 47800 31200 33200 34600 35300 40800 50800 56700 69100 91400
2020-08-12 17:30 8.86 43500 180000 (2011) 29200 (2013) 47800 31200 33200 34600 35300 40800 50800 56700 69100 91400
2020-08-12 16:30 8.86 43500 180000 (2011) 29200 (2013) 47800 31200 33200 34600 35300 40800 50800 56700 69100 91400
2020-08-12 15:30 8.87 43500 180000 (2011) 29200 (2013) 47800 31200 33200 34600 35300 40800 50800 56700 69100 91400
2020-08-12 14:30 8.86 43500 180000 (2011) 29200 (2013) 47800 31200 33200 34600 35300 40800 50800 56700 69100 91400
2020-08-12 13:30 8.86 43500 180000 (2011) 29200 (2013) 47800 31200 33200 34600 35300 40800 50800 56700 69100 91400
2020-08-12 12:30 8.85 43400 180000 (2011) 29200 (2013) 47800 31200 33200 34600 35300 40800 50800 56700 69100 91400
2020-08-12 11:30 8.85 43400 180000 (2011) 29200 (2013) 47800 31200 33200 34600 35300 40800 50800 56700 69100 91400
2020-08-12 10:30 8.84 43400 180000 (2011) 29200 (2013) 47800 31200 33200 34600 35300 40800 50800 56700 69100 91400
2020-08-12 09:30 8.82 43300 180000 (2011) 29200 (2013) 47800 31200 33200 34600 35300 40800 50800 56700 69100 91400
2020-08-12 08:30 8.86 43500 180000 (2011) 29200 (2013) 47800 31200 33200 34600 35300 40800 50800 56700 69100 91400
2020-08-12 07:30 8.86 43500 180000 (2011) 29200 (2013) 47800 31200 33200 34600 35300 40800 50800 56700 69100 91400
2020-08-12 06:30 8.88 43600 180000 (2011) 29200 (2013) 47800 31200 33200 34600 35300 40800 50800 56700 69100 91400
2020-08-12 05:30 8.87 43500 180000 (2011) 29200 (2013) 47800 31200 33200 34600 35300 40800 50800 56700 69100 91400
2020-08-12 04:30 8.89 43600 180000 (2011) 29200 (2013) 47800 31200 33200 34600 35300 40800 50800 56700 69100 91400
2020-08-12 03:30 8.88 43600 180000 (2011) 29200 (2013) 47800 31200 33200 34600 35300 40800 50800 56700 69100 91400
2020-08-12 02:30 8.87 43500 180000 (2011) 29200 (2013) 47800 31200 33200 34600 35300 40800 50800 56700 69100 91400
2020-08-12 01:30 8.86 43500 180000 (2011) 29200 (2013) 47800 31200 33200 34600 35300 40800 50800 56700 69100 91400
2020-08-12 00:30 8.87 43500 180000 (2011) 29200 (2013) 47800 31200 33200 34600 35300 40800 50800 56700 69100 91400
2020-08-11 23:30 8.88 43600 181000 (2011) 29000 (2013) 47900 30400 32400 35400 35700 40800 52000 54900 69300 94900
2020-08-11 22:30 8.87 43500 181000 (2011) 29000 (2013) 47900 30400 32400 35400 35700 40800 52000 54900 69300 94900
2020-08-11 21:30 8.84 43400 181000 (2011) 29000 (2013) 47900 30400 32400 35400 35700 40800 52000 54900 69300 94900
2020-08-11 20:30 8.84 43400 181000 (2011) 29000 (2013) 47900 30400 32400 35400 35700 40800 52000 54900 69300 94900
2020-08-11 19:30 8.84 43400 181000 (2011) 29000 (2013) 47900 30400 32400 35400 35700 40800 52000 54900 69300 94900
2020-08-11 18:30 8.81 43200 181000 (2011) 29000 (2013) 47900 30400 32400 35400 35700 40800 52000 54900 69300 94900
2020-08-11 17:30 8.80 43200 181000 (2011) 29000 (2013) 47900 30400 32400 35400 35700 40800 52000 54900 69300 94900
2020-08-11 16:30 8.79 43100 181000 (2011) 29000 (2013) 47900 30400 32400 35400 35700 40800 52000 54900 69300 94900
2020-08-11 15:30 8.79 43100 181000 (2011) 29000 (2013) 47900 30400 32400 35400 35700 40800 52000 54900 69300 94900
2020-08-11 14:30 8.79 43100 181000 (2011) 29000 (2013) 47900 30400 32400 35400 35700 40800 52000 54900 69300 94900
2020-08-11 13:30 8.77 43000 181000 (2011) 29000 (2013) 47900 30400 32400 35400 35700 40800 52000 54900 69300 94900
2020-08-11 12:30 8.79 43100 181000 (2011) 29000 (2013) 47900 30400 32400 35400 35700 40800 52000 54900 69300 94900
2020-08-11 11:30 8.79 43100 181000 (2011) 29000 (2013) 47900 30400 32400 35400 35700 40800 52000 54900 69300 94900
2020-08-11 10:30 8.79 43100 181000 (2011) 29000 (2013) 47900 30400 32400 35400 35700 40800 52000 54900 69300 94900
2020-08-11 09:30 8.79 43100 181000 (2011) 29000 (2013) 47900 30400 32400 35400 35700 40800 52000 54900 69300 94900
2020-08-11 08:30 8.81 43200 181000 (2011) 29000 (2013) 47900 30400 32400 35400 35700 40800 52000 54900 69300 94900
2020-08-11 07:30 8.82 43300 181000 (2011) 29000 (2013) 47900 30400 32400 35400 35700 40800 52000 54900 69300 94900
2020-08-11 06:30 8.84 43400 181000 (2011) 29000 (2013) 47900 30400 32400 35400 35700 40800 52000 54900 69300 94900
2020-08-11 05:30 8.85 43400 181000 (2011) 29000 (2013) 47900 30400 32400 35400 35700 40800 52000 54900 69300 94900
2020-08-11 04:30 8.85 43400 181000 (2011) 29000 (2013) 47900 30400 32400 35400 35700 40800 52000 54900 69300 94900
2020-08-11 03:30 8.85 43400 181000 (2011) 29000 (2013) 47900 30400 32400 35400 35700 40800 52000 54900 69300 94900
2020-08-11 02:30 8.85 43400 181000 (2011) 29000 (2013) 47900 30400 32400 35400 35700 40800 52000 54900 69300 94900
2020-08-11 01:30 8.89 43600 181000 (2011) 29000 (2013) 47900 30400 32400 35400 35700 40800 52000 54900 69300 94900
2020-08-11 00:30 8.90 43700 181000 (2011) 29000 (2013) 47900 30400 32400 35400 35700 40800 52000 54900 69300 94900
2020-08-10 23:30 8.93 43800 182000 (2011) 29600 (2013) 48800 30400 32200 34800 35800 41300 53600 57900 72600 101000
2020-08-10 22:30 8.90 43700 182000 (2011) 29600 (2013) 48800 30400 32200 34800 35800 41300 53600 57900 72600 101000
2020-08-10 21:30 8.95 43900 182000 (2011) 29600 (2013) 48800 30400 32200 34800 35800 41300 53600 57900 72600 101000
2020-08-10 20:30 8.91 43700 182000 (2011) 29600 (2013) 48800 30400 32200 34800 35800 41300 53600 57900 72600 101000
2020-08-10 19:30 8.95 43900 182000 (2011) 29600 (2013) 48800 30400 32200 34800 35800 41300 53600 57900 72600 101000
2020-08-10 18:30 8.92 43800 182000 (2011) 29600 (2013) 48800 30400 32200 34800 35800 41300 53600 57900 72600 101000
2020-08-10 17:30 8.91 43700 182000 (2011) 29600 (2013) 48800 30400 32200 34800 35800 41300 53600 57900 72600 101000
2020-08-10 16:30 8.89 43600 182000 (2011) 29600 (2013) 48800 30400 32200 34800 35800 41300 53600 57900 72600 101000
2020-08-10 15:30 8.88 43600 182000 (2011) 29600 (2013) 48800 30400 32200 34800 35800 41300 53600 57900 72600 101000
2020-08-10 14:30 8.87 43500 182000 (2011) 29600 (2013) 48800 30400 32200 34800 35800 41300 53600 57900 72600 101000
2020-08-10 13:30 8.89 43600 182000 (2011) 29600 (2013) 48800 30400 32200 34800 35800 41300 53600 57900 72600 101000
2020-08-10 12:30 8.89 43600 182000 (2011) 29600 (2013) 48800 30400 32200 34800 35800 41300 53600 57900 72600 101000
2020-08-10 11:30 8.89 43600 182000 (2011) 29600 (2013) 48800 30400 32200 34800 35800 41300 53600 57900 72600 101000
2020-08-10 10:30 8.88 43600 182000 (2011) 29600 (2013) 48800 30400 32200 34800 35800 41300 53600 57900 72600 101000
2020-08-10 09:30 8.90 43700 182000 (2011) 29600 (2013) 48800 30400 32200 34800 35800 41300 53600 57900 72600 101000
2020-08-10 08:30 8.89 43600 182000 (2011) 29600 (2013) 48800 30400 32200 34800 35800 41300 53600 57900 72600 101000
2020-08-10 07:30 8.92 43800 182000 (2011) 29600 (2013) 48800 30400 32200 34800 35800 41300 53600 57900 72600 101000
2020-08-10 06:30 8.92 43800 182000 (2011) 29600 (2013) 48800 30400 32200 34800 35800 41300 53600 57900 72600 101000
2020-08-10 05:30 8.92 43800 182000 (2011) 29600 (2013) 48800 30400 32200 34800 35800 41300 53600 57900 72600 101000
2020-08-10 04:30 8.93 43800 182000 (2011) 29600 (2013) 48800 30400 32200 34800 35800 41300 53600 57900 72600 101000
2020-08-10 03:30 8.96 44000 182000 (2011) 29600 (2013) 48800 30400 32200 34800 35800 41300 53600 57900 72600 101000
2020-08-10 02:30 8.97 44000 182000 (2011) 29600 (2013) 48800 30400 32200 34800 35800 41300 53600 57900 72600 101000
2020-08-10 01:30 8.95 43900 182000 (2011) 29600 (2013) 48800 30400 32200 34800 35800 41300 53600 57900 72600 101000
2020-08-10 00:30 8.95 43900 182000 (2011) 29600 (2013) 48800 30400 32200 34800 35800 41300 53600 57900 72600 101000
2020-08-09 23:30 8.98 44100 183000 (2011) 26600 (1955) 49800 30800 31700 34600 36000 41900 55000 59700 72300 105000
2020-08-09 22:30 8.98 44100 183000 (2011) 26600 (1955) 49800 30800 31700 34600 36000 41900 55000 59700 72300 105000
2020-08-09 21:30 8.99 44100 183000 (2011) 26600 (1955) 49800 30800 31700 34600 36000 41900 55000 59700 72300 105000
2020-08-09 20:30 9.00 44200 183000 (2011) 26600 (1955) 49800 30800 31700 34600 36000 41900 55000 59700 72300 105000
2020-08-09 19:30 8.97 44000 183000 (2011) 26600 (1955) 49800 30800 31700 34600 36000 41900 55000 59700 72300 105000
2020-08-09 18:30 8.97 44000 183000 (2011) 26600 (1955) 49800 30800 31700 34600 36000 41900 55000 59700 72300 105000
2020-08-09 17:30 8.98 44100 183000 (2011) 26600 (1955) 49800 30800 31700 34600 36000 41900 55000 59700 72300 105000
2020-08-09 16:30 8.97 44000 183000 (2011) 26600 (1955) 49800 30800 31700 34600 36000 41900 55000 59700 72300 105000
2020-08-09 15:30 8.98 44100 183000 (2011) 26600 (1955) 49800 30800 31700 34600 36000 41900 55000 59700 72300 105000
2020-08-09 14:30 8.98 44100 183000 (2011) 26600 (1955) 49800 30800 31700 34600 36000 41900 55000 59700 72300 105000
2020-08-09 13:30 8.96 44000 183000 (2011) 26600 (1955) 49800 30800 31700 34600 36000 41900 55000 59700 72300 105000
2020-08-09 12:30 8.96 44000 183000 (2011) 26600 (1955) 49800 30800 31700 34600 36000 41900 55000 59700 72300 105000
2020-08-09 11:30 9.00 44200 183000 (2011) 26600 (1955) 49800 30800 31700 34600 36000 41900 55000 59700 72300 105000
2020-08-09 10:30 8.98 44100 183000 (2011) 26600 (1955) 49800 30800 31700 34600 36000 41900 55000 59700 72300 105000
2020-08-09 09:30 9.00 44200 183000 (2011) 26600 (1955) 49800 30800 31700 34600 36000 41900 55000 59700 72300 105000
2020-08-09 08:30 9.01 44200 183000 (2011) 26600 (1955) 49800 30800 31700 34600 36000 41900 55000 59700 72300 105000
2020-08-09 07:30 9.00 44200 183000 (2011) 26600 (1955) 49800 30800 31700 34600 36000 41900 55000 59700 72300 105000
2020-08-09 06:30 9.03 44300 183000 (2011) 26600 (1955) 49800 30800 31700 34600 36000 41900 55000 59700 72300 105000
2020-08-09 05:30 9.04 44400 183000 (2011) 26600 (1955) 49800 30800 31700 34600 36000 41900 55000 59700 72300 105000
2020-08-09 04:30 9.04 44400 183000 (2011) 26600 (1955) 49800 30800 31700 34600 36000 41900 55000 59700 72300 105000
2020-08-09 03:30 9.07 44500 183000 (2011) 26600 (1955) 49800 30800 31700 34600 36000 41900 55000 59700 72300 105000
2020-08-09 02:30 9.06 44500 183000 (2011) 26600 (1955) 49800 30800 31700 34600 36000 41900 55000 59700 72300 105000
2020-08-09 01:30 9.10 44700 183000 (2011) 26600 (1955) 49800 30800 31700 34600 36000 41900 55000 59700 72300 105000
2020-08-09 00:30 9.08 44600 183000 (2011) 26600 (1955) 49800 30800 31700 34600 36000 41900 55000 59700 72300 105000
2020-08-08 23:30 9.13 44900 186000 (2011) 18200 (1955) 49700 31400 32900 34700 35100 41500 54000 59000 72200 108000
2020-08-08 22:30 9.14 44900 186000 (2011) 18200 (1955) 49700 31400 32900 34700 35100 41500 54000 59000 72200 108000
2020-08-08 21:30 9.15 45000 186000 (2011) 18200 (1955) 49700 31400 32900 34700 35100 41500 54000 59000 72200 108000
2020-08-08 20:30 9.14 44900 186000 (2011) 18200 (1955) 49700 31400 32900 34700 35100 41500 54000 59000 72200 108000
2020-08-08 19:30 9.15 45000 186000 (2011) 18200 (1955) 49700 31400 32900 34700 35100 41500 54000 59000 72200 108000
2020-08-08 18:30 9.12 44800 186000 (2011) 18200 (1955) 49700 31400 32900 34700 35100 41500 54000 59000 72200 108000
2020-08-08 17:30 9.13 44900 186000 (2011) 18200 (1955) 49700 31400 32900 34700 35100 41500 54000 59000 72200 108000
2020-08-08 16:30 9.10 44700 186000 (2011) 18200 (1955) 49700 31400 32900 34700 35100 41500 54000 59000 72200 108000
2020-08-08 15:30 9.10 44700 186000 (2011) 18200 (1955) 49700 31400 32900 34700 35100 41500 54000 59000 72200 108000
2020-08-08 14:30 9.09 44700 186000 (2011) 18200 (1955) 49700 31400 32900 34700 35100 41500 54000 59000 72200 108000
2020-08-08 13:30 9.12 44800 186000 (2011) 18200 (1955) 49700 31400 32900 34700 35100 41500 54000 59000 72200 108000
2020-08-08 12:30 9.09 44700 186000 (2011) 18200 (1955) 49700 31400 32900 34700 35100 41500 54000 59000 72200 108000
2020-08-08 11:30 9.09 44700 186000 (2011) 18200 (1955) 49700 31400 32900 34700 35100 41500 54000 59000 72200 108000
2020-08-08 10:30 9.13 44900 186000 (2011) 18200 (1955) 49700 31400 32900 34700 35100 41500 54000 59000 72200 108000
2020-08-08 09:30 9.14 44900 186000 (2011) 18200 (1955) 49700 31400 32900 34700 35100 41500 54000 59000 72200 108000
2020-08-08 08:30 9.16 45000 186000 (2011) 18200 (1955) 49700 31400 32900 34700 35100 41500 54000 59000 72200 108000
2020-08-08 07:30 9.17 45100 186000 (2011) 18200 (1955) 49700 31400 32900 34700 35100 41500 54000 59000 72200 108000
2020-08-08 06:30 9.19 45200 186000 (2011) 18200 (1955) 49700 31400 32900 34700 35100 41500 54000 59000 72200 108000
2020-08-08 05:30 9.20 45200 186000 (2011) 18200 (1955) 49700 31400 32900 34700 35100 41500 54000 59000 72200 108000
2020-08-08 04:30 9.25 45500 186000 (2011) 18200 (1955) 49700 31400 32900 34700 35100 41500 54000 59000 72200 108000
2020-08-08 03:30 9.23 45400 186000 (2011) 18200 (1955) 49700 31400 32900 34700 35100 41500 54000 59000 72200 108000
2020-08-08 02:30 9.30 45700 186000 (2011) 18200 (1955) 49700 31400 32900 34700 35100 41500 54000 59000 72200 108000
2020-08-08 01:30 9.34 45900 186000 (2011) 18200 (1955) 49700 31400 32900 34700 35100 41500 54000 59000 72200 108000
2020-08-08 00:30 9.36 46000 186000 (2011) 18200 (1955) 49700 31400 32900 34700 35100 41500 54000 59000 72200 108000
2020-08-07 23:30 9.37 46100 188000 (2011) 12000 (1955) 49100 31100 32600 35600 36500 41100 54800 57800 72200 107000
2020-08-07 22:30 9.39 46200 188000 (2011) 12000 (1955) 49100 31100 32600 35600 36500 41100 54800 57800 72200 107000
2020-08-07 21:30 9.37 46100 188000 (2011) 12000 (1955) 49100 31100 32600 35600 36500 41100 54800 57800 72200 107000
2020-08-07 20:30 9.39 46200 188000 (2011) 12000 (1955) 49100 31100 32600 35600 36500 41100 54800 57800 72200 107000
2020-08-07 19:30 9.39 46200 188000 (2011) 12000 (1955) 49100 31100 32600 35600 36500 41100 54800 57800 72200 107000
2020-08-07 18:30 9.42 46300 188000 (2011) 12000 (1955) 49100 31100 32600 35600 36500 41100 54800 57800 72200 107000
2020-08-07 17:30 9.38 46100 188000 (2011) 12000 (1955) 49100 31100 32600 35600 36500 41100 54800 57800 72200 107000
2020-08-07 16:30 9.37 46100 188000 (2011) 12000 (1955) 49100 31100 32600 35600 36500 41100 54800 57800 72200 107000
2020-08-07 15:30 9.35 46000 188000 (2011) 12000 (1955) 49100 31100 32600 35600 36500 41100 54800 57800 72200 107000
2020-08-07 14:30 9.32 45800 188000 (2011) 12000 (1955) 49100 31100 32600 35600 36500 41100 54800 57800 72200 107000
2020-08-07 13:30 9.28 45600 188000 (2011) 12000 (1955) 49100 31100 32600 35600 36500 41100 54800 57800 72200 107000
2020-08-07 12:30 9.28 45600 188000 (2011) 12000 (1955) 49100 31100 32600 35600 36500 41100 54800 57800 72200 107000
2020-08-07 11:30 9.25 45500 188000 (2011) 12000 (1955) 49100 31100 32600 35600 36500 41100 54800 57800 72200 107000
2020-08-07 10:30 9.22 45300 188000 (2011) 12000 (1955) 49100 31100 32600 35600 36500 41100 54800 57800 72200 107000
2020-08-07 09:30 9.18 45100 188000 (2011) 12000 (1955) 49100 31100 32600 35600 36500 41100 54800 57800 72200 107000
2020-08-07 08:30 9.17 45100 188000 (2011) 12000 (1955) 49100 31100 32600 35600 36500 41100 54800 57800 72200 107000
2020-08-07 07:30 9.18 45100 188000 (2011) 12000 (1955) 49100 31100 32600 35600 36500 41100 54800 57800 72200 107000
2020-08-07 06:30 9.16 45000 188000 (2011) 12000 (1955) 49100 31100 32600 35600 36500 41100 54800 57800 72200 107000
2020-08-07 05:30 9.16 45000 188000 (2011) 12000 (1955) 49100 31100 32600 35600 36500 41100 54800 57800 72200 107000
2020-08-07 04:30 9.13 44900 188000 (2011) 12000 (1955) 49100 31100 32600 35600 36500 41100 54800 57800 72200 107000
2020-08-07 03:30 9.14 44900 188000 (2011) 12000 (1955) 49100 31100 32600 35600 36500 41100 54800 57800 72200 107000
2020-08-07 02:30 9.11 44800 188000 (2011) 12000 (1955) 49100 31100 32600 35600 36500 41100 54800 57800 72200 107000
2020-08-07 01:30 9.12 44800 188000 (2011) 12000 (1955) 49100 31100 32600 35600 36500 41100 54800 57800 72200 107000
2020-08-07 00:30 9.12 44800 188000 (2011) 12000 (1955) 49100 31100 32600 35600 36500 41100 54800 57800 72200 107000
2020-08-06 23:30 9.15 45000 190000 (2011) 11900 (1955) 48000 30400 32400 35000 35600 40400 51800 57300 71200 97100
2020-08-06 22:30 9.15 45000 190000 (2011) 11900 (1955) 48000 30400 32400 35000 35600 40400 51800 57300 71200 97100
2020-08-06 21:30 9.14 44900 190000 (2011) 11900 (1955) 48000 30400 32400 35000 35600 40400 51800 57300 71200 97100
2020-08-06 20:30 9.13 44900 190000 (2011) 11900 (1955) 48000 30400 32400 35000 35600 40400 51800 57300 71200 97100
2020-08-06 19:30 9.12 44800 190000 (2011) 11900 (1955) 48000 30400 32400 35000 35600 40400 51800 57300 71200 97100
2020-08-06 18:30 9.12 44800 190000 (2011) 11900 (1955) 48000 30400 32400 35000 35600 40400 51800 57300 71200 97100
2020-08-06 17:30 9.12 44800 190000 (2011) 11900 (1955) 48000 30400 32400 35000 35600 40400 51800 57300 71200 97100
2020-08-06 16:30 9.11 44800 190000 (2011) 11900 (1955) 48000 30400 32400 35000 35600 40400 51800 57300 71200 97100
2020-08-06 15:30 9.09 44700 190000 (2011) 11900 (1955) 48000 30400 32400 35000 35600 40400 51800 57300 71200 97100
2020-08-06 14:30 9.09 44700 190000 (2011) 11900 (1955) 48000 30400 32400 35000 35600 40400 51800 57300 71200 97100
2020-08-06 13:30 9.08 44600 190000 (2011) 11900 (1955) 48000 30400 32400 35000 35600 40400 51800 57300 71200 97100
2020-08-06 12:30 9.10 44900 190000 (2011) 11900 (1955) 48000 30400 32400 35000 35600 40400 51800 57300 71200 97100
2020-08-06 11:30 9.09 44900 190000 (2011) 11900 (1955) 48000 30400 32400 35000 35600 40400 51800 57300 71200 97100
2020-08-06 10:30 9.09 44900 190000 (2011) 11900 (1955) 48000 30400 32400 35000 35600 40400 51800 57300 71200 97100
2020-08-06 09:30 9.10 44900 190000 (2011) 11900 (1955) 48000 30400 32400 35000 35600 40400 51800 57300 71200 97100
2020-08-06 08:30 9.10 44900 190000 (2011) 11900 (1955) 48000 30400 32400 35000 35600 40400 51800 57300 71200 97100
2020-08-06 07:30 9.13 45100 190000 (2011) 11900 (1955) 48000 30400 32400 35000 35600 40400 51800 57300 71200 97100
2020-08-06 06:30 9.13 45100 190000 (2011) 11900 (1955) 48000 30400 32400 35000 35600 40400 51800 57300 71200 97100
2020-08-06 05:30 9.13 45100 190000 (2011) 11900 (1955) 48000 30400 32400 35000 35600 40400 51800 57300 71200 97100
2020-08-06 04:30 9.17 45300 190000 (2011) 11900 (1955) 48000 30400 32400 35000 35600 40400 51800 57300 71200 97100
2020-08-06 03:30 9.17 45300 190000 (2011) 11900 (1955) 48000 30400 32400 35000 35600 40400 51800 57300 71200 97100
2020-08-06 02:30 9.18 45300 190000 (2011) 11900 (1955) 48000 30400 32400 35000 35600 40400 51800 57300 71200 97100
2020-08-06 01:30 9.22 45500 190000 (2011) 11900 (1955) 48000 30400 32400 35000 35600 40400 51800 57300 71200 97100
2020-08-06 00:30 9.23 45600 190000 (2011) 11900 (1955) 48000 30400 32400 35000 35600 40400 51800 57300 71200 97100
2020-08-05 23:30 9.23 45600 191000 (2011) 13400 (1955) 47600 30900 32600 35200 35700 40000 53100 57600 71500 92100
2020-08-05 22:30 9.23 45600 191000 (2011) 13400 (1955) 47600 30900 32600 35200 35700 40000 53100 57600 71500 92100
2020-08-05 21:30 9.25 45700 191000 (2011) 13400 (1955) 47600 30900 32600 35200 35700 40000 53100 57600 71500 92100
2020-08-05 20:30 9.25 45700 191000 (2011) 13400 (1955) 47600 30900 32600 35200 35700 40000 53100 57600 71500 92100
2020-08-05 19:30 9.25 45700 191000 (2011) 13400 (1955) 47600 30900 32600 35200 35700 40000 53100 57600 71500 92100
2020-08-05 18:30 9.23 45600 191000 (2011) 13400 (1955) 47600 30900 32600 35200 35700 40000 53100 57600 71500 92100
2020-08-05 17:30 9.25 45700 191000 (2011) 13400 (1955) 47600 30900 32600 35200 35700 40000 53100 57600 71500 92100
2020-08-05 16:30 9.22 45500 191000 (2011) 13400 (1955) 47600 30900 32600 35200 35700 40000 53100 57600 71500 92100
2020-08-05 15:30 9.22 45500 191000 (2011) 13400 (1955) 47600 30900 32600 35200 35700 40000 53100 57600 71500 92100
2020-08-05 14:30 9.20 45400 191000 (2011) 13400 (1955) 47600 30900 32600 35200 35700 40000 53100 57600 71500 92100
2020-08-05 13:30 9.19 45400 191000 (2011) 13400 (1955) 47600 30900 32600 35200 35700 40000 53100 57600 71500 92100
2020-08-05 12:30 9.21 45500 191000 (2011) 13400 (1955) 47600 30900 32600 35200 35700 40000 53100 57600 71500 92100
2020-08-05 11:30 9.16 45200 191000 (2011) 13400 (1955) 47600 30900 32600 35200 35700 40000 53100 57600 71500 92100
2020-08-05 10:30 9.20 45400 191000 (2011) 13400 (1955) 47600 30900 32600 35200 35700 40000 53100 57600 71500 92100
2020-08-05 09:30 9.21 45500 191000 (2011) 13400 (1955) 47600 30900 32600 35200 35700 40000 53100 57600 71500 92100
2020-08-05 08:30 9.21 45500 191000 (2011) 13400 (1955) 47600 30900 32600 35200 35700 40000 53100 57600 71500 92100
2020-08-05 07:30 9.21 45500 191000 (2011) 13400 (1955) 47600 30900 32600 35200 35700 40000 53100 57600 71500 92100
2020-08-05 06:30 9.22 45500 191000 (2011) 13400 (1955) 47600 30900 32600 35200 35700 40000 53100 57600 71500 92100
2020-08-05 05:30 9.23 45600 191000 (2011) 13400 (1955) 47600 30900 32600 35200 35700 40000 53100 57600 71500 92100
2020-08-05 04:30 9.28 45800 191000 (2011) 13400 (1955) 47600 30900 32600 35200 35700 40000 53100 57600 71500 92100
2020-08-05 03:30 9.28 45800 191000 (2011) 13400 (1955) 47600 30900 32600 35200 35700 40000 53100 57600 71500 92100
2020-08-05 02:30 9.30 45900 191000 (2011) 13400 (1955) 47600 30900 32600 35200 35700 40000 53100 57600 71500 92100
2020-08-05 01:30 9.33 46100 191000 (2011) 13400 (1955) 47600 30900 32600 35200 35700 40000 53100 57600 71500 92100
2020-08-05 00:30 9.35 46200 191000 (2011) 13400 (1955) 47600 30900 32600 35200 35700 40000 53100 57600 71500 92100
2020-08-04 23:30 9.37 46300 192000 (2011) 16400 (1955) 48100 31200 33600 35300 36100 40400 53100 57900 72800 96000
2020-08-04 22:30 9.39 46400 192000 (2011) 16400 (1955) 48100 31200 33600 35300 36100 40400 53100 57900 72800 96000
2020-08-04 21:30 9.40 46400 192000 (2011) 16400 (1955) 48100 31200 33600 35300 36100 40400 53100 57900 72800 96000
2020-08-04 20:30 9.43 46600 192000 (2011) 16400 (1955) 48100 31200 33600 35300 36100 40400 53100 57900 72800 96000
2020-08-04 19:30 9.43 46600 192000 (2011) 16400 (1955) 48100 31200 33600 35300 36100 40400 53100 57900 72800 96000
2020-08-04 18:30 9.44 46600 192000 (2011) 16400 (1955) 48100 31200 33600 35300 36100 40400 53100 57900 72800 96000
2020-08-04 17:30 9.44 46600 192000 (2011) 16400 (1955) 48100 31200 33600 35300 36100 40400 53100 57900 72800 96000
2020-08-04 16:30 9.43 46600 192000 (2011) 16400 (1955) 48100 31200 33600 35300 36100 40400 53100 57900 72800 96000
2020-08-04 15:30 9.43 46600 192000 (2011) 16400 (1955) 48100 31200 33600 35300 36100 40400 53100 57900 72800 96000
2020-08-04 14:30 9.44 46600 192000 (2011) 16400 (1955) 48100 31200 33600 35300 36100 40400 53100 57900 72800 96000
2020-08-04 13:30 9.44 46600 192000 (2011) 16400 (1955) 48100 31200 33600 35300 36100 40400 53100 57900 72800 96000
2020-08-04 12:30 9.44 46600 192000 (2011) 16400 (1955) 48100 31200 33600 35300 36100 40400 53100 57900 72800 96000
2020-08-04 11:30 9.46 46700 192000 (2011) 16400 (1955) 48100 31200 33600 35300 36100 40400 53100 57900 72800 96000
2020-08-04 10:30 9.45 46700 192000 (2011) 16400 (1955) 48100 31200 33600 35300 36100 40400 53100 57900 72800 96000
2020-08-04 09:30 9.47 46800 192000 (2011) 16400 (1955) 48100 31200 33600 35300 36100 40400 53100 57900 72800 96000
2020-08-04 08:30 9.47 46800 192000 (2011) 16400 (1955) 48100 31200 33600 35300 36100 40400 53100 57900 72800 96000
2020-08-04 07:30 9.46 46700 192000 (2011) 16400 (1955) 48100 31200 33600 35300 36100 40400 53100 57900 72800 96000
2020-08-04 06:30 9.47 46800 192000 (2011) 16400 (1955) 48100 31200 33600 35300 36100 40400 53100 57900 72800 96000
2020-08-04 05:30 9.47 46800 192000 (2011) 16400 (1955) 48100 31200 33600 35300 36100 40400 53100 57900 72800 96000
2020-08-04 04:30 9.52 47000 192000 (2011) 16400 (1955) 48100 31200 33600 35300 36100 40400 53100 57900 72800 96000
2020-08-04 03:30 9.51 47000 192000 (2011) 16400 (1955) 48100 31200 33600 35300 36100 40400 53100 57900 72800 96000
2020-08-04 02:30 9.55 47200 192000 (2011) 16400 (1955) 48100 31200 33600 35300 36100 40400 53100 57900 72800 96000
2020-08-04 01:30 9.58 47300 192000 (2011) 16400 (1955) 48100 31200 33600 35300 36100 40400 53100 57900 72800 96000
2020-08-04 00:30 9.61 47500 192000 (2011) 16400 (1955) 48100 31200 33600 35300 36100 40400 53100 57900 72800 96000
2020-08-03 23:30 9.62 47500 196000 (2011) 19400 (1955) 48300 31500 33300 35900 36300 40300 51300 58600 71000 101000
2020-08-03 22:30 9.59 47400 196000 (2011) 19400 (1955) 48300 31500 33300 35900 36300 40300 51300 58600 71000 101000
2020-08-03 21:30 9.62 47500 196000 (2011) 19400 (1955) 48300 31500 33300 35900 36300 40300 51300 58600 71000 101000
2020-08-03 20:30 9.66 47700 196000 (2011) 19400 (1955) 48300 31500 33300 35900 36300 40300 51300 58600 71000 101000
2020-08-03 19:30 9.63 47600 196000 (2011) 19400 (1955) 48300 31500 33300 35900 36300 40300 51300 58600 71000 101000
2020-08-03 18:30 9.64 47600 196000 (2011) 19400 (1955) 48300 31500 33300 35900 36300 40300 51300 58600 71000 101000
2020-08-03 17:30 9.66 47700 196000 (2011) 19400 (1955) 48300 31500 33300 35900 36300 40300 51300 58600 71000 101000
2020-08-03 16:30 9.66 47700 196000 (2011) 19400 (1955) 48300 31500 33300 35900 36300 40300 51300 58600 71000 101000
2020-08-03 15:30 9.66 47700 196000 (2011) 19400 (1955) 48300 31500 33300 35900 36300 40300 51300 58600 71000 101000
2020-08-03 14:30 9.68 47800 196000 (2011) 19400 (1955) 48300 31500 33300 35900 36300 40300 51300 58600 71000 101000
2020-08-03 13:30 9.65 47700 196000 (2011) 19400 (1955) 48300 31500 33300 35900 36300 40300 51300 58600 71000 101000
2020-08-03 12:30 9.69 47900 196000 (2011) 19400 (1955) 48300 31500 33300 35900 36300 40300 51300 58600 71000 101000
2020-08-03 11:30 9.65 47700 196000 (2011) 19400 (1955) 48300 31500 33300 35900 36300 40300 51300 58600 71000 101000
2020-08-03 10:30 9.68 47800 196000 (2011) 19400 (1955) 48300 31500 33300 35900 36300 40300 51300 58600 71000 101000
2020-08-03 09:30 9.66 47700 196000 (2011) 19400 (1955) 48300 31500 33300 35900 36300 40300 51300 58600 71000 101000
2020-08-03 08:30 9.66 47700 196000 (2011) 19400 (1955) 48300 31500 33300 35900 36300 40300 51300 58600 71000 101000
2020-08-03 07:30 9.67 47800 196000 (2011) 19400 (1955) 48300 31500 33300 35900 36300 40300 51300 58600 71000 101000
2020-08-03 06:30 9.66 47700 196000 (2011) 19400 (1955) 48300 31500 33300 35900 36300 40300 51300 58600 71000 101000
2020-08-03 05:30 9.69 47900 196000 (2011) 19400 (1955) 48300 31500 33300 35900 36300 40300 51300 58600 71000 101000
2020-08-03 04:30 9.69 47900 196000 (2011) 19400 (1955) 48300 31500 33300 35900 36300 40300 51300 58600 71000 101000
2020-08-03 03:30 9.71 48000 196000 (2011) 19400 (1955) 48300 31500 33300 35900 36300 40300 51300 58600 71000 101000
2020-08-03 02:30 9.72 48000 196000 (2011) 19400 (1955) 48300 31500 33300 35900 36300 40300 51300 58600 71000 101000
2020-08-03 01:30 9.74 48100 196000 (2011) 19400 (1955) 48300 31500 33300 35900 36300 40300 51300 58600 71000 101000
2020-08-03 00:30 9.74 48100 196000 (2011) 19400 (1955) 48300 31500 33300 35900 36300 40300 51300 58600 71000 101000
2020-08-02 23:30 9.76 48200 198000 (2011) 21000 (1955) 48500 31300 32600 36500 37100 40700 50800 56200 71600 102000
2020-08-02 22:30 9.76 48200 198000 (2011) 21000 (1955) 48500 31300 32600 36500 37100 40700 50800 56200 71600 102000
2020-08-02 21:30 9.76 48200 198000 (2011) 21000 (1955) 48500 31300 32600 36500 37100 40700 50800 56200 71600 102000
2020-08-02 20:30 9.75 48200 198000 (2011) 21000 (1955) 48500 31300 32600 36500 37100 40700 50800 56200 71600 102000
2020-08-02 19:30 9.80 48400 198000 (2011) 21000 (1955) 48500 31300 32600 36500 37100 40700 50800 56200 71600 102000
2020-08-02 18:30 9.76 48200 198000 (2011) 21000 (1955) 48500 31300 32600 36500 37100 40700 50800 56200 71600 102000
2020-08-02 17:30 9.77 48300 198000 (2011) 21000 (1955) 48500 31300 32600 36500 37100 40700 50800 56200 71600 102000
2020-08-02 16:30 9.77 48300 198000 (2011) 21000 (1955) 48500 31300 32600 36500 37100 40700 50800 56200 71600 102000
2020-08-02 15:30 9.75 48200 198000 (2011) 21000 (1955) 48500 31300 32600 36500 37100 40700 50800 56200 71600 102000
2020-08-02 14:30 9.75 48200 198000 (2011) 21000 (1955) 48500 31300 32600 36500 37100 40700 50800 56200 71600 102000
2020-08-02 13:30 9.72 48000 198000 (2011) 21000 (1955) 48500 31300 32600 36500 37100 40700 50800 56200 71600 102000
2020-08-02 12:30 9.75 48200 198000 (2011) 21000 (1955) 48500 31300 32600 36500 37100 40700 50800 56200 71600 102000
2020-08-02 11:30 9.78 48300 198000 (2011) 21000 (1955) 48500 31300 32600 36500 37100 40700 50800 56200 71600 102000
2020-08-02 10:30 9.79 48400 198000 (2011) 21000 (1955) 48500 31300 32600 36500 37100 40700 50800 56200 71600 102000
2020-08-02 09:30 9.80 48400 198000 (2011) 21000 (1955) 48500 31300 32600 36500 37100 40700 50800 56200 71600 102000
2020-08-02 08:30 9.81 48500 198000 (2011) 21000 (1955) 48500 31300 32600 36500 37100 40700 50800 56200 71600 102000
2020-08-02 07:30 9.84 48600 198000 (2011) 21000 (1955) 48500 31300 32600 36500 37100 40700 50800 56200 71600 102000
2020-08-02 06:30 9.88 48900 198000 (2011) 21000 (1955) 48500 31300 32600 36500 37100 40700 50800 56200 71600 102000
2020-08-02 05:30 9.93 49100 198000 (2011) 21000 (1955) 48500 31300 32600 36500 37100 40700 50800 56200 71600 102000
2020-08-02 04:30 9.98 49400 198000 (2011) 21000 (1955) 48500 31300 32600 36500 37100 40700 50800 56200 71600 102000
2020-08-02 03:30 1 49500 198000 (2011) 21000 (1955) 48500 31300 32600 36500 37100 40700 50800 56200 71600 102000
2020-08-02 02:30 10.08 49900 198000 (2011) 21000 (1955) 48500 31300 32600 36500 37100 40700 50800 56200 71600 102000
2020-08-02 01:30 10.11 50000 198000 (2011) 21000 (1955) 48500 31300 32600 36500 37100 40700 50800 56200 71600 102000
2020-08-02 00:30 10.15 50200 198000 (2011) 21000 (1955) 48500 31300 32600 36500 37100 40700 50800 56200 71600 102000
2020-08-01 23:30 10.21 50500 201000 (2011) 26000 (1955) 49200 31300 32600 36000 36300 40500 51800 57300 71600 101000
2020-08-01 22:30 10.24 50700 201000 (2011) 26000 (1955) 49200 31300 32600 36000 36300 40500 51800 57300 71600 101000
2020-08-01 21:30 10.30 51000 201000 (2011) 26000 (1955) 49200 31300 32600 36000 36300 40500 51800 57300 71600 101000
2020-08-01 20:30 10.32 51100 201000 (2011) 26000 (1955) 49200 31300 32600 36000 36300 40500 51800 57300 71600 101000
2020-08-01 19:30 10.37 51300 201000 (2011) 26000 (1955) 49200 31300 32600 36000 36300 40500 51800 57300 71600 101000
2020-08-01 18:30 10.40 51500 201000 (2011) 26000 (1955) 49200 31300 32600 36000 36300 40500 51800 57300 71600 101000
2020-08-01 17:30 10.42 51600 201000 (2011) 26000 (1955) 49200 31300 32600 36000 36300 40500 51800 57300 71600 101000
2020-08-01 16:30 10.46 51800 201000 (2011) 26000 (1955) 49200 31300 32600 36000 36300 40500 51800 57300 71600 101000
2020-08-01 15:30 10.44 51700 201000 (2011) 26000 (1955) 49200 31300 32600 36000 36300 40500 51800 57300 71600 101000
2020-08-01 14:30 10.45 51800 201000 (2011) 26000 (1955) 49200 31300 32600 36000 36300 40500 51800 57300 71600 101000
2020-08-01 13:30 10.46 51800 201000 (2011) 26000 (1955) 49200 31300 32600 36000 36300 40500 51800 57300 71600 101000
2020-08-01 12:30 10.48 51900 201000 (2011) 26000 (1955) 49200 31300 32600 36000 36300 40500 51800 57300 71600 101000
2020-08-01 11:30 10.47 51900 201000 (2011) 26000 (1955) 49200 31300 32600 36000 36300 40500 51800 57300 71600 101000
2020-08-01 10:30 10.45 51800 201000 (2011) 26000 (1955) 49200 31300 32600 36000 36300 40500 51800 57300 71600 101000
2020-08-01 09:30 10.45 51800 201000 (2011) 26000 (1955) 49200 31300 32600 36000 36300 40500 51800 57300 71600 101000
2020-08-01 08:30 10.45 51800 201000 (2011) 26000 (1955) 49200 31300 32600 36000 36300 40500 51800 57300 71600 101000
2020-08-01 07:30 10.43 51700 201000 (2011) 26000 (1955) 49200 31300 32600 36000 36300 40500 51800 57300 71600 101000
2020-08-01 06:30 10.41 51600 201000 (2011) 26000 (1955) 49200 31300 32600 36000 36300 40500 51800 57300 71600 101000
2020-08-01 05:30 10.44 51700 201000 (2011) 26000 (1955) 49200 31300 32600 36000 36300 40500 51800 57300 71600 101000
2020-08-01 04:30 10.41 51600 201000 (2011) 26000 (1955) 49200 31300 32600 36000 36300 40500 51800 57300 71600 101000
2020-08-01 03:30 10.44 51700 201000 (2011) 26000 (1955) 49200 31300 32600 36000 36300 40500 51800 57300 71600 101000
2020-08-01 02:30 10.46 51800 201000 (2011) 26000 (1955) 49200 31300 32600 36000 36300 40500 51800 57300 71600 101000
2020-08-01 01:30 10.46 51800 201000 (2011) 26000 (1955) 49200 31300 32600 36000 36300 40500 51800 57300 71600 101000
2020-08-01 00:30 10.50 52000 201000 (2011) 26000 (1955) 49200 31300 32600 36000 36300 40500 51800 57300 71600 101000
2020-07-31 23:30 10.53 52200 204000 (2011) 28300 (2002) 50000 31800 33000 35200 36000 41000 57000 59000 74500 102000
2020-07-31 22:30 10.55 52300 204000 (2011) 28300 (2002) 50000 31800 33000 35200 36000 41000 57000 59000 74500 102000
2020-07-31 21:30 10.59 52500 204000 (2011) 28300 (2002) 50000 31800 33000 35200 36000 41000 57000 59000 74500 102000
2020-07-31 20:30 10.64 52700 204000 (2011) 28300 (2002) 50000 31800 33000 35200 36000 41000 57000 59000 74500 102000
2020-07-31 19:30 10.68 52900 204000 (2011) 28300 (2002) 50000 31800 33000 35200 36000 41000 57000 59000 74500 102000
2020-07-31 18:30 10.73 53200 204000 (2011) 28300 (2002) 50000 31800 33000 35200 36000 41000 57000 59000 74500 102000
2020-07-31 17:30 10.80 53600 204000 (2011) 28300 (2002) 50000 31800 33000 35200 36000 41000 57000 59000 74500 102000
2020-07-31 16:30 10.84 53800 204000 (2011) 28300 (2002) 50000 31800 33000 35200 36000 41000 57000 59000 74500 102000
2020-07-31 15:30 10.93 40200 204000 (2011) 28300 (2002) 50000 31800 33000 35200 36000 41000 57000 59000 74500 102000
2020-07-31 14:30 10.99 40500 204000 (2011) 28300 (2002) 50000 31800 33000 35200 36000 41000 57000 59000 74500 102000
2020-07-31 13:30 11.10 41100 204000 (2011) 28300 (2002) 50000 31800 33000 35200 36000 41000 57000 59000 74500 102000
2020-07-31 12:30 11.20 41600 204000 (2011) 28300 (2002) 50000 31800 33000 35200 36000 41000 57000 59000 74500 102000
2020-07-31 11:30 11.29 42000 204000 (2011) 28300 (2002) 50000 31800 33000 35200 36000 41000 57000 59000 74500 102000
2020-07-31 10:30 11.36 42400 204000 (2011) 28300 (2002) 50000 31800 33000 35200 36000 41000 57000 59000 74500 102000
2020-07-31 09:30 11.45 42800 204000 (2011) 28300 (2002) 50000 31800 33000 35200 36000 41000 57000 59000 74500 102000
2020-07-31 08:30 11.54 43300 204000 (2011) 28300 (2002) 50000 31800 33000 35200 36000 41000 57000 59000 74500 102000
2020-07-31 07:30 11.67 43900 204000 (2011) 28300 (2002) 50000 31800 33000 35200 36000 41000 57000 59000 74500 102000
2020-07-31 06:30 11.75 44300 204000 (2011) 28300 (2002) 50000 31800 33000 35200 36000 41000 57000 59000 74500 102000
2020-07-31 05:30 11.89 45100 204000 (2011) 28300 (2002) 50000 31800 33000 35200 36000 41000 57000 59000 74500 102000
2020-07-31 04:30 12.01 45700 204000 (2011) 28300 (2002) 50000 31800 33000 35200 36000 41000 57000 59000 74500 102000
2020-07-31 03:30 12.13 46300 204000 (2011) 28300 (2002) 50000 31800 33000 35200 36000 41000 57000 59000 74500 102000
2020-07-31 02:30 12.23 46800 204000 (2011) 28300 (2002) 50000 31800 33000 35200 36000 41000 57000 59000 74500 102000
2020-07-31 01:30 12.37 47500 204000 (2011) 28300 (2002) 50000 31800 33000 35200 36000 41000 57000 59000 74500 102000
2020-07-31 00:30 12.50 48100 204000 (2011) 28300 (2002) 50000 31800 33000 35200 36000 41000 57000 59000 74500 102000
2020-07-30 23:30 12.67 49000 207000 (2011) 28400 (2002) 50200 31900 33000 34900 35700 41800 53100 59200 76600 105000
2020-07-30 22:30 12.83 49800 207000 (2011) 28400 (2002) 50200 31900 33000 34900 35700 41800 53100 59200 76600 105000
2020-07-30 21:30 12.99 50600 207000 (2011) 28400 (2002) 50200 31900 33000 34900 35700 41800 53100 59200 76600 105000
2020-07-30 20:30 13.15 51500 207000 (2011) 28400 (2002) 50200 31900 33000 34900 35700 41800 53100 59200 76600 105000
2020-07-30 19:30 13.29 52200 207000 (2011) 28400 (2002) 50200 31900 33000 34900 35700 41800 53100 59200 76600 105000
2020-07-30 18:30 13.38 52600 207000 (2011) 28400 (2002) 50200 31900 33000 34900 35700 41800 53100 59200 76600 105000
2020-07-30 17:30 13.41 52800 207000 (2011) 28400 (2002) 50200 31900 33000 34900 35700 41800 53100 59200 76600 105000
2020-07-30 16:30 13.39 52700 207000 (2011) 28400 (2002) 50200 31900 33000 34900 35700 41800 53100 59200 76600 105000
2020-07-30 15:30 13.36 52500 207000 (2011) 28400 (2002) 50200 31900 33000 34900 35700 41800 53100 59200 76600 105000
2020-07-30 14:30 13.32 52300 207000 (2011) 28400 (2002) 50200 31900 33000 34900 35700 41800 53100 59200 76600 105000
2020-07-30 13:30 13.20 66500 207000 (2011) 28400 (2002) 50200 31900 33000 34900 35700 41800 53100 59200 76600 105000
2020-07-30 12:30 13.07 65800 207000 (2011) 28400 (2002) 50200 31900 33000 34900 35700 41800 53100 59200 76600 105000
2020-07-30 11:30 12.90 64800 207000 (2011) 28400 (2002) 50200 31900 33000 34900 35700 41800 53100 59200 76600 105000
2020-07-30 10:30 12.77 64100 207000 (2011) 28400 (2002) 50200 31900 33000 34900 35700 41800 53100 59200 76600 105000
2020-07-30 09:30 12.60 63100 207000 (2011) 28400 (2002) 50200 31900 33000 34900 35700 41800 53100 59200 76600 105000
2020-07-30 08:30 12.45 62300 207000 (2011) 28400 (2002) 50200 31900 33000 34900 35700 41800 53100 59200 76600 105000
2020-07-30 07:30 12.26 61200 207000 (2011) 28400 (2002) 50200 31900 33000 34900 35700 41800 53100 59200 76600 105000
2020-07-30 06:30 12.06 60100 207000 (2011) 28400 (2002) 50200 31900 33000 34900 35700 41800 53100 59200 76600 105000
2020-07-30 05:30 11.85 59000 207000 (2011) 28400 (2002) 50200 31900 33000 34900 35700 41800 53100 59200 76600 105000
2020-07-30 04:30 11.66 58000 207000 (2011) 28400 (2002) 50200 31900 33000 34900 35700 41800 53100 59200 76600 105000
2020-07-30 03:30 11.49 57100 207000 (2011) 28400 (2002) 50200 31900 33000 34900 35700 41800 53100 59200 76600 105000
2020-07-30 02:30 11.27 56000 207000 (2011) 28400 (2002) 50200 31900 33000 34900 35700 41800 53100 59200 76600 105000
2020-07-30 01:30 11.01 54600 207000 (2011) 28400 (2002) 50200 31900 33000 34900 35700 41800 53100 59200 76600 105000
2020-07-30 00:30 10.79 53500 207000 (2011) 28400 (2002) 50200 31900 33000 34900 35700 41800 53100 59200 76600 105000
2020-07-29 23:30 10.52 52100 210000 (2011) 29400 (2002) 50700 32100 32900 34500 37000 42700 53600 60200 73400 107000
2020-07-29 22:30 10.30 51000 210000 (2011) 29400 (2002) 50700 32100 32900 34500 37000 42700 53600 60200 73400 107000
2020-07-29 21:30 10.13 50100 210000 (2011) 29400 (2002) 50700 32100 32900 34500 37000 42700 53600 60200 73400 107000
2020-07-29 20:30 10.07 49800 210000 (2011) 29400 (2002) 50700 32100 32900 34500 37000 42700 53600 60200 73400 107000
2020-07-29 19:30 10.03 49600 210000 (2011) 29400 (2002) 50700 32100 32900 34500 37000 42700 53600 60200 73400 107000
2020-07-29 18:30 10.01 49500 210000 (2011) 29400 (2002) 50700 32100 32900 34500 37000 42700 53600 60200 73400 107000
2020-07-29 17:30 10.01 49500 210000 (2011) 29400 (2002) 50700 32100 32900 34500 37000 42700 53600 60200 73400 107000
2020-07-29 16:30 9.98 49400 210000 (2011) 29400 (2002) 50700 32100 32900 34500 37000 42700 53600 60200 73400 107000
2020-07-29 15:30 9.95 49200 210000 (2011) 29400 (2002) 50700 32100 32900 34500 37000 42700 53600 60200 73400 107000
2020-07-29 14:30 9.94 49200 210000 (2011) 29400 (2002) 50700 32100 32900 34500 37000 42700 53600 60200 73400 107000
2020-07-29 13:30 9.92 49100 210000 (2011) 29400 (2002) 50700 32100 32900 34500 37000 42700 53600 60200 73400 107000
2020-07-29 12:30 9.92 49100 210000 (2011) 29400 (2002) 50700 32100 32900 34500 37000 42700 53600 60200 73400 107000
2020-07-29 11:30 9.90 49000 210000 (2011) 29400 (2002) 50700 32100 32900 34500 37000 42700 53600 60200 73400 107000
2020-07-29 10:30 9.93 49100 210000 (2011) 29400 (2002) 50700 32100 32900 34500 37000 42700 53600 60200 73400 107000
2020-07-29 09:30 9.91 49000 210000 (2011) 29400 (2002) 50700 32100 32900 34500 37000 42700 53600 60200 73400 107000
2020-07-29 08:30 9.96 49300 210000 (2011) 29400 (2002) 50700 32100 32900 34500 37000 42700 53600 60200 73400 107000
2020-07-29 07:30 9.97 49300 210000 (2011) 29400 (2002) 50700 32100 32900 34500 37000 42700 53600 60200 73400 107000
2020-07-29 06:30 10.01 49500 210000 (2011) 29400 (2002) 50700 32100 32900 34500 37000 42700 53600 60200 73400 107000
2020-07-29 05:30 10.05 49700 210000 (2011) 29400 (2002) 50700 32100 32900 34500 37000 42700 53600 60200 73400 107000
2020-07-29 04:30 10.10 50000 210000 (2011) 29400 (2002) 50700 32100 32900 34500 37000 42700 53600 60200 73400 107000
2020-07-29 03:30 10.12 50100 210000 (2011) 29400 (2002) 50700 32100 32900 34500 37000 42700 53600 60200 73400 107000
2020-07-29 02:30 10.16 50300 210000 (2011) 29400 (2002) 50700 32100 32900 34500 37000 42700 53600 60200 73400 107000
2020-07-29 01:30 10.19 50400 210000 (2011) 29400 (2002) 50700 32100 32900 34500 37000 42700 53600 60200 73400 107000
2020-07-29 00:30 10.24 50700 210000 (2011) 29400 (2002) 50700 32100 32900 34500 37000 42700 53600 60200 73400 107000
2020-07-28 23:30 10.27 50800 217000 (2011) 29800 (2006) 51600 31600 32800 35100 36500 43200 51900 61200 74300 109000
2020-07-28 22:30 10.28 50900 217000 (2011) 29800 (2006) 51600 31600 32800 35100 36500 43200 51900 61200 74300 109000
2020-07-28 21:30 10.33 51100 217000 (2011) 29800 (2006) 51600 31600 32800 35100 36500 43200 51900 61200 74300 109000
2020-07-28 20:30 10.35 51200 217000 (2011) 29800 (2006) 51600 31600 32800 35100 36500 43200 51900 61200 74300 109000
2020-07-28 19:30 10.39 51500 217000 (2011) 29800 (2006) 51600 31600 32800 35100 36500 43200 51900 61200 74300 109000
2020-07-28 18:30 10.41 51600 217000 (2011) 29800 (2006) 51600 31600 32800 35100 36500 43200 51900 61200 74300 109000
2020-07-28 17:30 10.41 51600 217000 (2011) 29800 (2006) 51600 31600 32800 35100 36500 43200 51900 61200 74300 109000
2020-07-28 16:30 10.42 51600 217000 (2011) 29800 (2006) 51600 31600 32800 35100 36500 43200 51900 61200 74300 109000
2020-07-28 15:30 10.45 51800 217000 (2011) 29800 (2006) 51600 31600 32800 35100 36500 43200 51900 61200 74300 109000
2020-07-28 14:30 10.46 51800 217000 (2011) 29800 (2006) 51600 31600 32800 35100 36500 43200 51900 61200 74300 109000
2020-07-28 13:30 10.51 52100 217000 (2011) 29800 (2006) 51600 31600 32800 35100 36500 43200 51900 61200 74300 109000
2020-07-28 12:30 10.50 52000 217000 (2011) 29800 (2006) 51600 31600 32800 35100 36500 43200 51900 61200 74300 109000
2020-07-28 11:30 10.52 52100 217000 (2011) 29800 (2006) 51600 31600 32800 35100 36500 43200 51900 61200 74300 109000
2020-07-28 10:30 10.54 52200 217000 (2011) 29800 (2006) 51600 31600 32800 35100 36500 43200 51900 61200 74300 109000
2020-07-28 09:30 10.58 52400 217000 (2011) 29800 (2006) 51600 31600 32800 35100 36500 43200 51900 61200 74300 109000
2020-07-28 08:30 10.66 52800 217000 (2011) 29800 (2006) 51600 31600 32800 35100 36500 43200 51900 61200 74300 109000
2020-07-28 07:30 10.70 53000 217000 (2011) 29800 (2006) 51600 31600 32800 35100 36500 43200 51900 61200 74300 109000
2020-07-28 06:30 10.75 53300 217000 (2011) 29800 (2006) 51600 31600 32800 35100 36500 43200 51900 61200 74300 109000
2020-07-28 05:30 10.82 53700 217000 (2011) 29800 (2006) 51600 31600 32800 35100 36500 43200 51900 61200 74300 109000
2020-07-28 04:30 10.88 54000 217000 (2011) 29800 (2006) 51600 31600 32800 35100 36500 43200 51900 61200 74300 109000
2020-07-28 03:30 10.93 54200 217000 (2011) 29800 (2006) 51600 31600 32800 35100 36500 43200 51900 61200 74300 109000
2020-07-28 02:30 10.97 54400 217000 (2011) 29800 (2006) 51600 31600 32800 35100 36500 43200 51900 61200 74300 109000
2020-07-28 01:30 11.00 54600 217000 (2011) 29800 (2006) 51600 31600 32800 35100 36500 43200 51900 61200 74300 109000
2020-07-28 00:30 11.03 54700 217000 (2011) 29800 (2006) 51600 31600 32800 35100 36500 43200 51900 61200 74300 109000
2020-07-27 23:30 11.04 54800 232000 (1993) 29300 (2002) 52700 30900 32100 34400 35900 41800 54400 62700 75800 110000
2020-07-27 22:30 11.04 54800 232000 (1993) 29300 (2002) 52700 30900 32100 34400 35900 41800 54400 62700 75800 110000
2020-07-27 21:30 11.04 54800 232000 (1993) 29300 (2002) 52700 30900 32100 34400 35900 41800 54400 62700 75800 110000
2020-07-27 20:30 11.02 54700 232000 (1993) 29300 (2002) 52700 30900 32100 34400 35900 41800 54400 62700 75800 110000
2020-07-27 19:30 10.96 54400 232000 (1993) 29300 (2002) 52700 30900 32100 34400 35900 41800 54400 62700 75800 110000
2020-07-27 18:30 10.95 54300 232000 (1993) 29300 (2002) 52700 30900 32100 34400 35900 41800 54400 62700 75800 110000
2020-07-27 17:30 10.93 54200 232000 (1993) 29300 (2002) 52700 30900 32100 34400 35900 41800 54400 62700 75800 110000
2020-07-27 16:30 10.90 54100 232000 (1993) 29300 (2002) 52700 30900 32100 34400 35900 41800 54400 62700 75800 110000
2020-07-27 15:30 10.91 54100 232000 (1993) 29300 (2002) 52700 30900 32100 34400 35900 41800 54400 62700 75800 110000
2020-07-27 14:30 10.91 54100 232000 (1993) 29300 (2002) 52700 30900 32100 34400 35900 41800 54400 62700 75800 110000
2020-07-27 13:30 10.96 54400 232000 (1993) 29300 (2002) 52700 30900 32100 34400 35900 41800 54400 62700 75800 110000
2020-07-27 12:30 11.01 54600 232000 (1993) 29300 (2002) 52700 30900 32100 34400 35900 41800 54400 62700 75800 110000
2020-07-27 11:30 11.04 54800 232000 (1993) 29300 (2002) 52700 30900 32100 34400 35900 41800 54400 62700 75800 110000
2020-07-27 10:30 11.05 54800 232000 (1993) 29300 (2002) 52700 30900 32100 34400 35900 41800 54400 62700 75800 110000
2020-07-27 09:30 11.06 54900 232000 (1993) 29300 (2002) 52700 30900 32100 34400 35900 41800 54400 62700 75800 110000
2020-07-27 08:30 11.11 55100 232000 (1993) 29300 (2002) 52700 30900 32100 34400 35900 41800 54400 62700 75800 110000
2020-07-27 07:30 11.14 55300 232000 (1993) 29300 (2002) 52700 30900 32100 34400 35900 41800 54400 62700 75800 110000
2020-07-27 06:30 11.12 55200 232000 (1993) 29300 (2002) 52700 30900 32100 34400 35900 41800 54400 62700 75800 110000
2020-07-27 05:30 11.12 55200 232000 (1993) 29300 (2002) 52700 30900 32100 34400 35900 41800 54400 62700 75800 110000
2020-07-27 04:30 11.10 55100 232000 (1993) 29300 (2002) 52700 30900 32100 34400 35900 41800 54400 62700 75800 110000
2020-07-27 03:30 11.02 54700 232000 (1993) 29300 (2002) 52700 30900 32100 34400 35900 41800 54400 62700 75800 110000
2020-07-27 02:30 10.91 54100 232000 (1993) 29300 (2002) 52700 30900 32100 34400 35900 41800 54400 62700 75800 110000
2020-07-27 01:30 10.79 53500 232000 (1993) 29300 (2002) 52700 30900 32100 34400 35900 41800 54400 62700 75800 110000
2020-07-27 00:30 10.64 52700 232000 (1993) 29300 (2002) 52700 30900 32100 34400 35900 41800 54400 62700 75800 110000
2020-07-26 23:30 10.52 52100 252000 (1993) 28600 (2002) 52900 30800 32800 34100 35900 42400 51800 61900 75900 110000
2020-07-26 22:30 10.44 51700 252000 (1993) 28600 (2002) 52900 30800 32800 34100 35900 42400 51800 61900 75900 110000
2020-07-26 21:30 10.32 51100 252000 (1993) 28600 (2002) 52900 30800 32800 34100 35900 42400 51800 61900 75900 110000
2020-07-26 20:30 10.21 50500 252000 (1993) 28600 (2002) 52900 30800 32800 34100 35900 42400 51800 61900 75900 110000
2020-07-26 19:30 10.15 50200 252000 (1993) 28600 (2002) 52900 30800 32800 34100 35900 42400 51800 61900 75900 110000
2020-07-26 18:30 10.10 50000 252000 (1993) 28600 (2002) 52900 30800 32800 34100 35900 42400 51800 61900 75900 110000
2020-07-26 17:30 10.04 49700 252000 (1993) 28600 (2002) 52900 30800 32800 34100 35900 42400 51800 61900 75900 110000
2020-07-26 16:30 10.03 49600 252000 (1993) 28600 (2002) 52900 30800 32800 34100 35900 42400 51800 61900 75900 110000
2020-07-26 15:30 9.91 49000 252000 (1993) 28600 (2002) 52900 30800 32800 34100 35900 42400 51800 61900 75900 110000
2020-07-26 14:30 9.88 48900 252000 (1993) 28600 (2002) 52900 30800 32800 34100 35900 42400 51800 61900 75900 110000
2020-07-26 13:30 9.89 48900 252000 (1993) 28600 (2002) 52900 30800 32800 34100 35900 42400 51800 61900 75900 110000
2020-07-26 12:30 9.91 49000 252000 (1993) 28600 (2002) 52900 30800 32800 34100 35900 42400 51800 61900 75900 110000
2020-07-26 11:30 9.91 49000 252000 (1993) 28600 (2002) 52900 30800 32800 34100 35900 42400 51800 61900 75900 110000
2020-07-26 10:30 9.94 49200 252000 (1993) 28600 (2002) 52900 30800 32800 34100 35900 42400 51800 61900 75900 110000
2020-07-26 09:30 9.92 49100 252000 (1993) 28600 (2002) 52900 30800 32800 34100 35900 42400 51800 61900 75900 110000
2020-07-26 08:30 9.90 49000 252000 (1993) 28600 (2002) 52900 30800 32800 34100 35900 42400 51800 61900 75900 110000
2020-07-26 07:30 9.87 48800 252000 (1993) 28600 (2002) 52900 30800 32800 34100 35900 42400 51800 61900 75900 110000
2020-07-26 06:30 9.88 48900 252000 (1993) 28600 (2002) 52900 30800 32800 34100 35900 42400 51800 61900 75900 110000
2020-07-26 05:30 9.88 48900 252000 (1993) 28600 (2002) 52900 30800 32800 34100 35900 42400 51800 61900 75900 110000
2020-07-26 04:30 9.89 48900 252000 (1993) 28600 (2002) 52900 30800 32800 34100 35900 42400 51800 61900 75900 110000
2020-07-26 03:30 9.89 48900 252000 (1993) 28600 (2002) 52900 30800 32800 34100 35900 42400 51800 61900 75900 110000
2020-07-26 02:30 9.89 48900 252000 (1993) 28600 (2002) 52900 30800 32800 34100 35900 42400 51800 61900 75900 110000
2020-07-26 01:30 9.87 48800 252000 (1993) 28600 (2002) 52900 30800 32800 34100 35900 42400 51800 61900 75900 110000
2020-07-26 00:30 9.87 48800 252000 (1993) 28600 (2002) 52900 30800 32800 34100 35900 42400 51800 61900 75900 110000
2020-07-25 23:30 9.89 48900 273000 (1993) 28100 (2002) 52500 30700 32900 34300 36300 42500 52600 59200 74200 109000
2020-07-25 22:30 9.88 48900 273000 (1993) 28100 (2002) 52500 30700 32900 34300 36300 42500 52600 59200 74200 109000
2020-07-25 21:30 9.90 49000 273000 (1993) 28100 (2002) 52500 30700 32900 34300 36300 42500 52600 59200 74200 109000
2020-07-25 20:30 9.89 48900 273000 (1993) 28100 (2002) 52500 30700 32900 34300 36300 42500 52600 59200 74200 109000
2020-07-25 19:30 9.89 48900 273000 (1993) 28100 (2002) 52500 30700 32900 34300 36300 42500 52600 59200 74200 109000
2020-07-25 18:30 9.87 48800 273000 (1993) 28100 (2002) 52500 30700 32900 34300 36300 42500 52600 59200 74200 109000
2020-07-25 17:30 9.85 48700 273000 (1993) 28100 (2002) 52500 30700 32900 34300 36300 42500 52600 59200 74200 109000
2020-07-25 16:30 9.82 48500 273000 (1993) 28100 (2002) 52500 30700 32900 34300 36300 42500 52600 59200 74200 109000
2020-07-25 15:30 9.83 48600 273000 (1993) 28100 (2002) 52500 30700 32900 34300 36300 42500 52600 59200 74200 109000
2020-07-25 14:30 9.81 48500 273000 (1993) 28100 (2002) 52500 30700 32900 34300 36300 42500 52600 59200 74200 109000
2020-07-25 13:30 9.79 48400 273000 (1993) 28100 (2002) 52500 30700 32900 34300 36300 42500 52600 59200 74200 109000
2020-07-25 12:30 9.82 48500 273000 (1993) 28100 (2002) 52500 30700 32900 34300 36300 42500 52600 59200 74200 109000
2020-07-25 11:30 9.77 48300 273000 (1993) 28100 (2002) 52500 30700 32900 34300 36300 42500 52600 59200 74200 109000
2020-07-25 10:30 9.77 48300 273000 (1993) 28100 (2002) 52500 30700 32900 34300 36300 42500 52600 59200 74200 109000
2020-07-25 09:30 9.76 48200 273000 (1993) 28100 (2002) 52500 30700 32900 34300 36300 42500 52600 59200 74200 109000
2020-07-25 08:30 9.78 48300 273000 (1993) 28100 (2002) 52500 30700 32900 34300 36300 42500 52600 59200 74200 109000
2020-07-25 07:30 9.76 48200 273000 (1993) 28100 (2002) 52500 30700 32900 34300 36300 42500 52600 59200 74200 109000
2020-07-25 06:30 9.78 48300 273000 (1993) 28100 (2002) 52500 30700 32900 34300 36300 42500 52600 59200 74200 109000
2020-07-25 05:30 9.80 48400 273000 (1993) 28100 (2002) 52500 30700 32900 34300 36300 42500 52600 59200 74200 109000
2020-07-25 04:30 9.82 48500 273000 (1993) 28100 (2002) 52500 30700 32900 34300 36300 42500 52600 59200 74200 109000
2020-07-25 03:30 9.84 48600 273000 (1993) 28100 (2002) 52500 30700 32900 34300 36300 42500 52600 59200 74200 109000
2020-07-25 02:30 9.84 48600 273000 (1993) 28100 (2002) 52500 30700 32900 34300 36300 42500 52600 59200 74200 109000
2020-07-25 01:30 9.85 48700 273000 (1993) 28100 (2002) 52500 30700 32900 34300 36300 42500 52600 59200 74200 109000
2020-07-25 00:30 9.86 48700 273000 (1993) 28100 (2002) 52500 30700 32900 34300 36300 42500 52600 59200 74200 109000
2020-07-24 23:30 9.88 48900 289000 (1993) 27900 (2002) 52900 30700 32600 35400 36500 41400 52800 58900 77100 108000
2020-07-24 22:30 9.89 48900 289000 (1993) 27900 (2002) 52900 30700 32600 35400 36500 41400 52800 58900 77100 108000
2020-07-24 21:30 9.90 49000 289000 (1993) 27900 (2002) 52900 30700 32600 35400 36500 41400 52800 58900 77100 108000
2020-07-24 20:30 9.92 49100 289000 (1993) 27900 (2002) 52900 30700 32600 35400 36500 41400 52800 58900 77100 108000
2020-07-24 19:30 9.94 49200 289000 (1993) 27900 (2002) 52900 30700 32600 35400 36500 41400 52800 58900 77100 108000
2020-07-24 18:30 9.95 49200 289000 (1993) 27900 (2002) 52900 30700 32600 35400 36500 41400 52800 58900 77100 108000
2020-07-24 17:30 9.94 49200 289000 (1993) 27900 (2002) 52900 30700 32600 35400 36500 41400 52800 58900 77100 108000
2020-07-24 16:30 9.95 49200 289000 (1993) 27900 (2002) 52900 30700 32600 35400 36500 41400 52800 58900 77100 108000
2020-07-24 15:30 9.96 49300 289000 (1993) 27900 (2002) 52900 30700 32600 35400 36500 41400 52800 58900 77100 108000
2020-07-24 14:30 9.95 49200 289000 (1993) 27900 (2002) 52900 30700 32600 35400 36500 41400 52800 58900 77100 108000
2020-07-24 13:30 9.96 49300 289000 (1993) 27900 (2002) 52900 30700 32600 35400 36500 41400 52800 58900 77100 108000
2020-07-24 12:30 9.97 49300 289000 (1993) 27900 (2002) 52900 30700 32600 35400 36500 41400 52800 58900 77100 108000
2020-07-24 11:30 9.98 49400 289000 (1993) 27900 (2002) 52900 30700 32600 35400 36500 41400 52800 58900 77100 108000
2020-07-24 10:30 9.98 49400 289000 (1993) 27900 (2002) 52900 30700 32600 35400 36500 41400 52800 58900 77100 108000
2020-07-24 09:30 1 49500 289000 (1993) 27900 (2002) 52900 30700 32600 35400 36500 41400 52800 58900 77100 108000
2020-07-24 08:30 10.01 49500 289000 (1993) 27900 (2002) 52900 30700 32600 35400 36500 41400 52800 58900 77100 108000
2020-07-24 07:30 10.04 49700 289000 (1993) 27900 (2002) 52900 30700 32600 35400 36500 41400 52800 58900 77100 108000
2020-07-24 06:30 10.05 49700 289000 (1993) 27900 (2002) 52900 30700 32600 35400 36500 41400 52800 58900 77100 108000
2020-07-24 05:30 10.09 49900 289000 (1993) 27900 (2002) 52900 30700 32600 35400 36500 41400 52800 58900 77100 108000
2020-07-24 04:30 10.12 50100 289000 (1993) 27900 (2002) 52900 30700 32600 35400 36500 41400 52800 58900 77100 108000
2020-07-24 03:30 10.13 50100 289000 (1993) 27900 (2002) 52900 30700 32600 35400 36500 41400 52800 58900 77100 108000
2020-07-24 02:30 10.17 50300 289000 (1993) 27900 (2002) 52900 30700 32600 35400 36500 41400 52800 58900 77100 108000
2020-07-24 01:30 10.20 50500 289000 (1993) 27900 (2002) 52900 30700 32600 35400 36500 41400 52800 58900 77100 108000
2020-07-24 00:30 10.19 50400 289000 (1993) 27900 (2002) 52900 30700 32600 35400 36500 41400 52800 58900 77100 108000
2020-07-23 23:30 10.22 50600 213000 (2011) 27600 (2002) 52500 31200 33100 34900 37100 43000 50400 58800 81500 112000
2020-07-23 22:30 10.24 50700 213000 (2011) 27600 (2002) 52500 31200 33100 34900 37100 43000 50400 58800 81500 112000
2020-07-23 21:30 10.25 50700 213000 (2011) 27600 (2002) 52500 31200 33100 34900 37100 43000 50400 58800 81500 112000
2020-07-23 20:30 10.27 50800 213000 (2011) 27600 (2002) 52500 31200 33100 34900 37100 43000 50400 58800 81500 112000
2020-07-23 19:30 10.29 50900 213000 (2011) 27600 (2002) 52500 31200 33100 34900 37100 43000 50400 58800 81500 112000
2020-07-23 18:30 10.29 50900 213000 (2011) 27600 (2002) 52500 31200 33100 34900 37100 43000 50400 58800 81500 112000
2020-07-23 17:30 10.30 51000 213000 (2011) 27600 (2002) 52500 31200 33100 34900 37100 43000 50400 58800 81500 112000
2020-07-23 16:30 10.32 51100 213000 (2011) 27600 (2002) 52500 31200 33100 34900 37100 43000 50400 58800 81500 112000
2020-07-23 15:30 10.33 51100 213000 (2011) 27600 (2002) 52500 31200 33100 34900 37100 43000 50400 58800 81500 112000
2020-07-23 14:30 10.36 51300 213000 (2011) 27600 (2002) 52500 31200 33100 34900 37100 43000 50400 58800 81500 112000
2020-07-23 13:30 10.36 51300 213000 (2011) 27600 (2002) 52500 31200 33100 34900 37100 43000 50400 58800 81500 112000
2020-07-23 12:30 10.39 51700 213000 (2011) 27600 (2002) 52500 31200 33100 34900 37100 43000 50400 58800 81500 112000
2020-07-23 11:30 10.40 51800 213000 (2011) 27600 (2002) 52500 31200 33100 34900 37100 43000 50400 58800 81500 112000
2020-07-23 10:30 10.42 51900 213000 (2011) 27600 (2002) 52500 31200 33100 34900 37100 43000 50400 58800 81500 112000
2020-07-23 09:30 10.42 51900 213000 (2011) 27600 (2002) 52500 31200 33100 34900 37100 43000 50400 58800 81500 112000
2020-07-23 08:30 10.46 52100 213000 (2011) 27600 (2002) 52500 31200 33100 34900 37100 43000 50400 58800 81500 112000
2020-07-23 07:30 10.48 52200 213000 (2011) 27600 (2002) 52500 31200 33100 34900 37100 43000 50400 58800 81500 112000
2020-07-23 06:30 10.49 52200 213000 (2011) 27600 (2002) 52500 31200 33100 34900 37100 43000 50400 58800 81500 112000
2020-07-23 05:30 10.52 52400 213000 (2011) 27600 (2002) 52500 31200 33100 34900 37100 43000 50400 58800 81500 112000
2020-07-23 04:30 10.54 52500 213000 (2011) 27600 (2002) 52500 31200 33100 34900 37100 43000 50400 58800 81500 112000
2020-07-23 03:30 10.55 52500 213000 (2011) 27600 (2002) 52500 31200 33100 34900 37100 43000 50400 58800 81500 112000
2020-07-23 02:30 10.59 52700 213000 (2011) 27600 (2002) 52500 31200 33100 34900 37100 43000 50400 58800 81500 112000
2020-07-23 01:30 10.61 52800 213000 (2011) 27600 (2002) 52500 31200 33100 34900 37100 43000 50400 58800 81500 112000
2020-07-23 00:30 10.63 52900 213000 (2011) 27600 (2002) 52500 31200 33100 34900 37100 43000 50400 58800 81500 112000
2020-07-22 23:30 10.67 53100 212000 (2011) 27600 (2002) 52600 32100 32600 36000 36800 43200 52500 57700 86300 109000
2020-07-22 22:30 10.69 53200 212000 (2011) 27600 (2002) 52600 32100 32600 36000 36800 43200 52500 57700 86300 109000
2020-07-22 21:30 10.73 53500 212000 (2011) 27600 (2002) 52600 32100 32600 36000 36800 43200 52500 57700 86300 109000
2020-07-22 20:30 10.77 53700 212000 (2011) 27600 (2002) 52600 32100 32600 36000 36800 43200 52500 57700 86300 109000
2020-07-22 19:30 10.80 53800 212000 (2011) 27600 (2002) 52600 32100 32600 36000 36800 43200 52500 57700 86300 109000
2020-07-22 18:30 10.84 54000 212000 (2011) 27600 (2002) 52600 32100 32600 36000 36800 43200 52500 57700 86300 109000
2020-07-22 17:30 10.88 54200 212000 (2011) 27600 (2002) 52600 32100 32600 36000 36800 43200 52500 57700 86300 109000
2020-07-22 16:30 10.91 54400 212000 (2011) 27600 (2002) 52600 32100 32600 36000 36800 43200 52500 57700 86300 109000
2020-07-22 15:30 10.96 54600 212000 (2011) 27600 (2002) 52600 32100 32600 36000 36800 43200 52500 57700 86300 109000
2020-07-22 14:30 11.00 54800 212000 (2011) 27600 (2002) 52600 32100 32600 36000 36800 43200 52500 57700 86300 109000
2020-07-22 13:30 11.03 55000 212000 (2011) 27600 (2002) 52600 32100 32600 36000 36800 43200 52500 57700 86300 109000
2020-07-22 12:30 11.08 55300 212000 (2011) 27600 (2002) 52600 32100 32600 36000 36800 43200 52500 57700 86300 109000
2020-07-22 11:30 11.12 55500 212000 (2011) 27600 (2002) 52600 32100 32600 36000 36800 43200 52500 57700 86300 109000
2020-07-22 10:30 11.15 55600 212000 (2011) 27600 (2002) 52600 32100 32600 36000 36800 43200 52500 57700 86300 109000
2020-07-22 09:30 11.19 55800 212000 (2011) 27600 (2002) 52600 32100 32600 36000 36800 43200 52500 57700 86300 109000
2020-07-22 08:30 11.23 56000 212000 (2011) 27600 (2002) 52600 32100 32600 36000 36800 43200 52500 57700 86300 109000
2020-07-22 07:30 11.27 56200 212000 (2011) 27600 (2002) 52600 32100 32600 36000 36800 43200 52500 57700 86300 109000
2020-07-22 06:30 11.31 56400 212000 (2011) 27600 (2002) 52600 32100 32600 36000 36800 43200 52500 57700 86300 109000
2020-07-22 05:30 11.35 56600 212000 (2011) 27600 (2002) 52600 32100 32600 36000 36800 43200 52500 57700 86300 109000
2020-07-22 04:30 11.38 56800 212000 (2011) 27600 (2002) 52600 32100 32600 36000 36800 43200 52500 57700 86300 109000
2020-07-22 03:30 11.39 56900 212000 (2011) 27600 (2002) 52600 32100 32600 36000 36800 43200 52500 57700 86300 109000
2020-07-22 02:30 11.42 57000 212000 (2011) 27600 (2002) 52600 32100 32600 36000 36800 43200 52500 57700 86300 109000
2020-07-22 01:30 11.41 57000 212000 (2011) 27600 (2002) 52600 32100 32600 36000 36800 43200 52500 57700 86300 109000
2020-07-22 00:30 11.42 57000 212000 (2011) 27600 (2002) 52600 32100 32600 36000 36800 43200 52500 57700 86300 109000
2020-07-21 23:30 11.41 57000 212000 (2011) 27900 (2002) 52800 32600 33000 35600 36900 43500 55800 58000 76700 117000
2020-07-21 22:30 11.42 57000 212000 (2011) 27900 (2002) 52800 32600 33000 35600 36900 43500 55800 58000 76700 117000
2020-07-21 21:30 11.43 57100 212000 (2011) 27900 (2002) 52800 32600 33000 35600 36900 43500 55800 58000 76700 117000
2020-07-21 20:30 11.46 57200 212000 (2011) 27900 (2002) 52800 32600 33000 35600 36900 43500 55800 58000 76700 117000
2020-07-21 19:30 11.49 57400 212000 (2011) 27900 (2002) 52800 32600 33000 35600 36900 43500 55800 58000 76700 117000
2020-07-21 18:30 11.51 57500 212000 (2011) 27900 (2002) 52800 32600 33000 35600 36900 43500 55800 58000 76700 117000
2020-07-21 17:30 11.54 57600 212000 (2011) 27900 (2002) 52800 32600 33000 35600 36900 43500 55800 58000 76700 117000
2020-07-21 16:30 11.54 57600 212000 (2011) 27900 (2002) 52800 32600 33000 35600 36900 43500 55800 58000 76700 117000
2020-07-21 15:30 11.53 57600 212000 (2011) 27900 (2002) 52800 32600 33000 35600 36900 43500 55800 58000 76700 117000
2020-07-21 14:30 11.53 57600 212000 (2011) 27900 (2002) 52800 32600 33000 35600 36900 43500 55800 58000 76700 117000
2020-07-21 13:30 11.49 57400 212000 (2011) 27900 (2002) 52800 32600 33000 35600 36900 43500 55800 58000 76700 117000
2020-07-21 12:30 11.45 57200 212000 (2011) 27900 (2002) 52800 32600 33000 35600 36900 43500 55800 58000 76700 117000
2020-07-21 11:30 11.42 57000 212000 (2011) 27900 (2002) 52800 32600 33000 35600 36900 43500 55800 58000 76700 117000
2020-07-21 10:30 11.39 56900 212000 (2011) 27900 (2002) 52800 32600 33000 35600 36900 43500 55800 58000 76700 117000
2020-07-21 09:30 11.39 56900 212000 (2011) 27900 (2002) 52800 32600 33000 35600 36900 43500 55800 58000 76700 117000
2020-07-21 08:30 11.39 56900 212000 (2011) 27900 (2002) 52800 32600 33000 35600 36900 43500 55800 58000 76700 117000
2020-07-21 07:30 11.39 56900 212000 (2011) 27900 (2002) 52800 32600 33000 35600 36900 43500 55800 58000 76700 117000
2020-07-21 06:30 11.42 57000 212000 (2011) 27900 (2002) 52800 32600 33000 35600 36900 43500 55800 58000 76700 117000
2020-07-21 05:30 11.44 57100 212000 (2011) 27900 (2002) 52800 32600 33000 35600 36900 43500 55800 58000 76700 117000
2020-07-21 04:30 11.49 57400 212000 (2011) 27900 (2002) 52800 32600 33000 35600 36900 43500 55800 58000 76700 117000
2020-07-21 03:30 11.54 57600 212000 (2011) 27900 (2002) 52800 32600 33000 35600 36900 43500 55800 58000 76700 117000
2020-07-21 02:30 11.60 57900 212000 (2011) 27900 (2002) 52800 32600 33000 35600 36900 43500 55800 58000 76700 117000
2020-07-21 01:30 11.62 58000 212000 (2011) 27900 (2002) 52800 32600 33000 35600 36900 43500 55800 58000 76700 117000
2020-07-21 00:30 11.71 58500 212000 (2011) 27900 (2002) 52800 32600 33000 35600 36900 43500 55800 58000 76700 117000
2020-07-20 23:30 11.78 58900 216000 (2011) 28200 (2002) 53900 32400 33400 35000 36200 44100 58900 61400 76700 116000
2020-07-20 22:30 11.87 59300 216000 (2011) 28200 (2002) 53900 32400 33400 35000 36200 44100 58900 61400 76700 116000
2020-07-20 21:30 11.95 59800 216000 (2011) 28200 (2002) 53900 32400 33400 35000 36200 44100 58900 61400 76700 116000
2020-07-20 20:30 12.02 60100 216000 (2011) 28200 (2002) 53900 32400 33400 35000 36200 44100 58900 61400 76700 116000
2020-07-20 19:30 12.08 60500 216000 (2011) 28200 (2002) 53900 32400 33400 35000 36200 44100 58900 61400 76700 116000
2020-07-20 18:30 12.10 60600 216000 (2011) 28200 (2002) 53900 32400 33400 35000 36200 44100 58900 61400 76700 116000
2020-07-20 17:30 12.09 60500 216000 (2011) 28200 (2002) 53900 32400 33400 35000 36200 44100 58900 61400 76700 116000
2020-07-20 16:30 12.01 60100 216000 (2011) 28200 (2002) 53900 32400 33400 35000 36200 44100 58900 61400 76700 116000
2020-07-20 15:30 11.85 59200 216000 (2011) 28200 (2002) 53900 32400 33400 35000 36200 44100 58900 61400 76700 116000
2020-07-20 14:30 11.60 57900 216000 (2011) 28200 (2002) 53900 32400 33400 35000 36200 44100 58900 61400 76700 116000
2020-07-20 13:30 11.29 56300 216000 (2011) 28200 (2002) 53900 32400 33400 35000 36200 44100 58900 61400 76700 116000
2020-07-20 12:30 10.92 54400 216000 (2011) 28200 (2002) 53900 32400 33400 35000 36200 44100 58900 61400 76700 116000
2020-07-20 11:30 10.54 52500 216000 (2011) 28200 (2002) 53900 32400 33400 35000 36200 44100 58900 61400 76700 116000
2020-07-20 10:30 10.34 51500 216000 (2011) 28200 (2002) 53900 32400 33400 35000 36200 44100 58900 61400 76700 116000
2020-07-20 09:30 10.23 50900 216000 (2011) 28200 (2002) 53900 32400 33400 35000 36200 44100 58900 61400 76700 116000
2020-07-20 08:30 10.14 50400 216000 (2011) 28200 (2002) 53900 32400 33400 35000 36200 44100 58900 61400 76700 116000
2020-07-20 07:30 10.06 50000 216000 (2011) 28200 (2002) 53900 32400 33400 35000 36200 44100 58900 61400 76700 116000
2020-07-20 06:30 10.01 49800 216000 (2011) 28200 (2002) 53900 32400 33400 35000 36200 44100 58900 61400 76700 116000
2020-07-20 05:30 9.94 49400 216000 (2011) 28200 (2002) 53900 32400 33400 35000 36200 44100 58900 61400 76700 116000
2020-07-20 04:30 9.93 49400 216000 (2011) 28200 (2002) 53900 32400 33400 35000 36200 44100 58900 61400 76700 116000
2020-07-20 03:30 9.94 49400 216000 (2011) 28200 (2002) 53900 32400 33400 35000 36200 44100 58900 61400 76700 116000
2020-07-20 02:30 9.97 49600 216000 (2011) 28200 (2002) 53900 32400 33400 35000 36200 44100 58900 61400 76700 116000
2020-07-20 01:30 9.98 49600 216000 (2011) 28200 (2002) 53900 32400 33400 35000 36200 44100 58900 61400 76700 116000
2020-07-20 00:30 1 49700 216000 (2011) 28200 (2002) 53900 32400 33400 35000 36200 44100 58900 61400 76700 116000
2020-07-19 23:30 10.02 49800 222000 (2011) 28400 (2002) 54000 32700 33900 36500 37400 44100 56200 59200 79600 113000
2020-07-19 22:30 10.03 49900 222000 (2011) 28400 (2002) 54000 32700 33900 36500 37400 44100 56200 59200 79600 113000
2020-07-19 21:30 10.03 49900 222000 (2011) 28400 (2002) 54000 32700 33900 36500 37400 44100 56200 59200 79600 113000
2020-07-19 20:30 10.04 49900 222000 (2011) 28400 (2002) 54000 32700 33900 36500 37400 44100 56200 59200 79600 113000
2020-07-19 19:30 10.03 49900 222000 (2011) 28400 (2002) 54000 32700 33900 36500 37400 44100 56200 59200 79600 113000
2020-07-19 18:30 10.03 49900 222000 (2011) 28400 (2002) 54000 32700 33900 36500 37400 44100 56200 59200 79600 113000
2020-07-19 17:30 10.02 49800 222000 (2011) 28400 (2002) 54000 32700 33900 36500 37400 44100 56200 59200 79600 113000
2020-07-19 16:30 1 49700 222000 (2011) 28400 (2002) 54000 32700 33900 36500 37400 44100 56200 59200 79600 113000
2020-07-19 15:30 10.02 49800 222000 (2011) 28400 (2002) 54000 32700 33900 36500 37400 44100 56200 59200 79600 113000
2020-07-19 14:30 10.01 49800 222000 (2011) 28400 (2002) 54000 32700 33900 36500 37400 44100 56200 59200 79600 113000
2020-07-19 13:30 10.01 49800 222000 (2011) 28400 (2002) 54000 32700 33900 36500 37400 44100 56200 59200 79600 113000
2020-07-19 12:30 10.02 49800 222000 (2011) 28400 (2002) 54000 32700 33900 36500 37400 44100 56200 59200 79600 113000
2020-07-19 11:30 10.02 49800 222000 (2011) 28400 (2002) 54000 32700 33900 36500 37400 44100 56200 59200 79600 113000
2020-07-19 10:30 10.02 49800 222000 (2011) 28400 (2002) 54000 32700 33900 36500 37400 44100 56200 59200 79600 113000
2020-07-19 09:30 10.02 49800 222000 (2011) 28400 (2002) 54000 32700 33900 36500 37400 44100 56200 59200 79600 113000
2020-07-19 08:30 10.05 50000 222000 (2011) 28400 (2002) 54000 32700 33900 36500 37400 44100 56200 59200 79600 113000
2020-07-19 07:30 10.06 50000 222000 (2011) 28400 (2002) 54000 32700 33900 36500 37400 44100 56200 59200 79600 113000
2020-07-19 06:30 10.09 50200 222000 (2011) 28400 (2002) 54000 32700 33900 36500 37400 44100 56200 59200 79600 113000
2020-07-19 05:30 10.12 50300 222000 (2011) 28400 (2002) 54000 32700 33900 36500 37400 44100 56200 59200 79600 113000
2020-07-19 04:30 10.13 50400 222000 (2011) 28400 (2002) 54000 32700 33900 36500 37400 44100 56200 59200 79600 113000
2020-07-19 03:30 10.14 50400 222000 (2011) 28400 (2002) 54000 32700 33900 36500 37400 44100 56200 59200 79600 113000
2020-07-19 02:30 10.15 50500 222000 (2011) 28400 (2002) 54000 32700 33900 36500 37400 44100 56200 59200 79600 113000
2020-07-19 01:30 10.18 50600 222000 (2011) 28400 (2002) 54000 32700 33900 36500 37400 44100 56200 59200 79600 113000
2020-07-19 00:30 10.20 50700 222000 (2011) 28400 (2002) 54000 32700 33900 36500 37400 44100 56200 59200 79600 113000
2020-07-18 23:30 10.22 50800 220000 (2011) 28700 (2002) 52800 32900 33500 35600 36600 43500 55700 58600 84700 110000
2020-07-18 22:30 10.22 50800 220000 (2011) 28700 (2002) 52800 32900 33500 35600 36600 43500 55700 58600 84700 110000
2020-07-18 21:30 10.23 50900 220000 (2011) 28700 (2002) 52800 32900 33500 35600 36600 43500 55700 58600 84700 110000
2020-07-18 20:30 10.25 51000 220000 (2011) 28700 (2002) 52800 32900 33500 35600 36600 43500 55700 58600 84700 110000
2020-07-18 19:30 10.26 51000 220000 (2011) 28700 (2002) 52800 32900 33500 35600 36600 43500 55700 58600 84700 110000
2020-07-18 18:30 10.26 51000 220000 (2011) 28700 (2002) 52800 32900 33500 35600 36600 43500 55700 58600 84700 110000
2020-07-18 17:30 10.28 51100 220000 (2011) 28700 (2002) 52800 32900 33500 35600 36600 43500 55700 58600 84700 110000
2020-07-18 16:30 10.28 51100 220000 (2011) 28700 (2002) 52800 32900 33500 35600 36600 43500 55700 58600 84700 110000
2020-07-18 15:30 10.28 51100 220000 (2011) 28700 (2002) 52800 32900 33500 35600 36600 43500 55700 58600 84700 110000
2020-07-18 14:30 10.27 51100 220000 (2011) 28700 (2002) 52800 32900 33500 35600 36600 43500 55700 58600 84700 110000
2020-07-18 13:30 10.27 51100 220000 (2011) 28700 (2002) 52800 32900 33500 35600 36600 43500 55700 58600 84700 110000
2020-07-18 12:30 10.27 51100 220000 (2011) 28700 (2002) 52800 32900 33500 35600 36600 43500 55700 58600 84700 110000
2020-07-18 11:30 10.26 51000 220000 (2011) 28700 (2002) 52800 32900 33500 35600 36600 43500 55700 58600 84700 110000
2020-07-18 10:30 10.27 51100 220000 (2011) 28700 (2002) 52800 32900 33500 35600 36600 43500 55700 58600 84700 110000
2020-07-18 09:30 10.26 51000 220000 (2011) 28700 (2002) 52800 32900 33500 35600 36600 43500 55700 58600 84700 110000
2020-07-18 08:30 10.27 51100 220000 (2011) 28700 (2002) 52800 32900 33500 35600 36600 43500 55700 58600 84700 110000
2020-07-18 07:30 10.29 51200 220000 (2011) 28700 (2002) 52800 32900 33500 35600 36600 43500 55700 58600 84700 110000
2020-07-18 06:30 10.32 51300 220000 (2011) 28700 (2002) 52800 32900 33500 35600 36600 43500 55700 58600 84700 110000
2020-07-18 05:30 10.34 51500 220000 (2011) 28700 (2002) 52800 32900 33500 35600 36600 43500 55700 58600 84700 110000
2020-07-18 04:30 10.35 51500 220000 (2011) 28700 (2002) 52800 32900 33500 35600 36600 43500 55700 58600 84700 110000
2020-07-18 03:30 10.38 51700 220000 (2011) 28700 (2002) 52800 32900 33500 35600 36600 43500 55700 58600 84700 110000
2020-07-18 02:30 10.39 51700 220000 (2011) 28700 (2002) 52800 32900 33500 35600 36600 43500 55700 58600 84700 110000
2020-07-18 01:30 10.42 51900 220000 (2011) 28700 (2002) 52800 32900 33500 35600 36600 43500 55700 58600 84700 110000
2020-07-18 00:30 10.42 51900 220000 (2011) 28700 (2002) 52800 32900 33500 35600 36600 43500 55700 58600 84700 110000
2020-07-17 23:30 10.45 52000 214000 (2011) 29100 (2002) 51900 32000 33700 34800 36400 42800 54500 59700 71800 114000
2020-07-17 22:30 10.47 52100 214000 (2011) 29100 (2002) 51900 32000 33700 34800 36400 42800 54500 59700 71800 114000
2020-07-17 21:30 10.49 52200 214000 (2011) 29100 (2002) 51900 32000 33700 34800 36400 42800 54500 59700 71800 114000
2020-07-17 20:30 10.50 52300 214000 (2011) 29100 (2002) 51900 32000 33700 34800 36400 42800 54500 59700 71800 114000
2020-07-17 19:30 10.51 52300 214000 (2011) 29100 (2002) 51900 32000 33700 34800 36400 42800 54500 59700 71800 114000
2020-07-17 18:30 10.53 52400 214000 (2011) 29100 (2002) 51900 32000 33700 34800 36400 42800 54500 59700 71800 114000
2020-07-17 17:30 10.53 52400 214000 (2011) 29100 (2002) 51900 32000 33700 34800 36400 42800 54500 59700 71800 114000
2020-07-17 16:30 10.54 52500 214000 (2011) 29100 (2002) 51900 32000 33700 34800 36400 42800 54500 59700 71800 114000
2020-07-17 15:30 10.53 52400 214000 (2011) 29100 (2002) 51900 32000 33700 34800 36400 42800 54500 59700 71800 114000
2020-07-17 14:30 10.55 52500 214000 (2011) 29100 (2002) 51900 32000 33700 34800 36400 42800 54500 59700 71800 114000
2020-07-17 13:30 10.55 52500 214000 (2011) 29100 (2002) 51900 32000 33700 34800 36400 42800 54500 59700 71800 114000
2020-07-17 12:30 10.55 53000 214000 (2011) 29100 (2002) 51900 32000 33700 34800 36400 42800 54500 59700 71800 114000
2020-07-17 11:30 10.56 53100 214000 (2011) 29100 (2002) 51900 32000 33700 34800 36400 42800 54500 59700 71800 114000
2020-07-17 10:30 10.58 53200 214000 (2011) 29100 (2002) 51900 32000 33700 34800 36400 42800 54500 59700 71800 114000
2020-07-17 09:30 10.57 53100 214000 (2011) 29100 (2002) 51900 32000 33700 34800 36400 42800 54500 59700 71800 114000
2020-07-17 08:30 10.60 53300 214000 (2011) 29100 (2002) 51900 32000 33700 34800 36400 42800 54500 59700 71800 114000
2020-07-17 07:30 10.63 53500 214000 (2011) 29100 (2002) 51900 32000 33700 34800 36400 42800 54500 59700 71800 114000
2020-07-17 06:30 10.65 53600 214000 (2011) 29100 (2002) 51900 32000 33700 34800 36400 42800 54500 59700 71800 114000
2020-07-17 05:30 10.68 53700 214000 (2011) 29100 (2002) 51900 32000 33700 34800 36400 42800 54500 59700 71800 114000
2020-07-17 04:30 10.70 53800 214000 (2011) 29100 (2002) 51900 32000 33700 34800 36400 42800 54500 59700 71800 114000
2020-07-17 03:30 10.76 54100 214000 (2011) 29100 (2002) 51900 32000 33700 34800 36400 42800 54500 59700 71800 114000
2020-07-17 02:30 10.80 54300 214000 (2011) 29100 (2002) 51900 32000 33700 34800 36400 42800 54500 59700 71800 114000
2020-07-17 01:30 10.81 54400 214000 (2011) 29100 (2002) 51900 32000 33700 34800 36400 42800 54500 59700 71800 114000
2020-07-17 00:30 10.87 54700 214000 (2011) 29100 (2002) 51900 32000 33700 34800 36400 42800 54500 59700 71800 114000
2020-07-16 23:30 10.91 54900 212000 (2011) 29600 (2002) 52600 32700 33900 35400 35900 42500 56500 59600 71100 115000
2020-07-16 22:30 10.94 55000 212000 (2011) 29600 (2002) 52600 32700 33900 35400 35900 42500 56500 59600 71100 115000
2020-07-16 21:30 10.97 55200 212000 (2011) 29600 (2002) 52600 32700 33900 35400 35900 42500 56500 59600 71100 115000
2020-07-16 20:30 11.00 55400 212000 (2011) 29600 (2002) 52600 32700 33900 35400 35900 42500 56500 59600 71100 115000
2020-07-16 19:30 11.03 55500 212000 (2011) 29600 (2002) 52600 32700 33900 35400 35900 42500 56500 59600 71100 115000
2020-07-16 18:30 11.05 55600 212000 (2011) 29600 (2002) 52600 32700 33900 35400 35900 42500 56500 59600 71100 115000
2020-07-16 17:30 11.07 55700 212000 (2011) 29600 (2002) 52600 32700 33900 35400 35900 42500 56500 59600 71100 115000
2020-07-16 16:30 11.10 55900 212000 (2011) 29600 (2002) 52600 32700 33900 35400 35900 42500 56500 59600 71100 115000
2020-07-16 15:30 11.15 56100 212000 (2011) 29600 (2002) 52600 32700 33900 35400 35900 42500 56500 59600 71100 115000
2020-07-16 14:30 11.17 56200 212000 (2011) 29600 (2002) 52600 32700 33900 35400 35900 42500 56500 59600 71100 115000
2020-07-16 13:30 11.20 56400 212000 (2011) 29600 (2002) 52600 32700 33900 35400 35900 42500 56500 59600 71100 115000
2020-07-16 12:30 11.22 56500 212000 (2011) 29600 (2002) 52600 32700 33900 35400 35900 42500 56500 59600 71100 115000
2020-07-16 11:30 11.27 56700 212000 (2011) 29600 (2002) 52600 32700 33900 35400 35900 42500 56500 59600 71100 115000
2020-07-16 10:30 11.29 56900 212000 (2011) 29600 (2002) 52600 32700 33900 35400 35900 42500 56500 59600 71100 115000
2020-07-16 09:30 11.34 57100 212000 (2011) 29600 (2002) 52600 32700 33900 35400 35900 42500 56500 59600 71100 115000
2020-07-16 08:30 11.38 57300 212000 (2011) 29600 (2002) 52600 32700 33900 35400 35900 42500 56500 59600 71100 115000
2020-07-16 07:30 11.44 57600 212000 (2011) 29600 (2002) 52600 32700 33900 35400 35900 42500 56500 59600 71100 115000
2020-07-16 06:30 11.49 57900 212000 (2011) 29600 (2002) 52600 32700 33900 35400 35900 42500 56500 59600 71100 115000
2020-07-16 05:30 11.52 58000 212000 (2011) 29600 (2002) 52600 32700 33900 35400 35900 42500 56500 59600 71100 115000
2020-07-16 04:30 11.57 58300 212000 (2011) 29600 (2002) 52600 32700 33900 35400 35900 42500 56500 59600 71100 115000
2020-07-16 03:30 11.62 58600 212000 (2011) 29600 (2002) 52600 32700 33900 35400 35900 42500 56500 59600 71100 115000
2020-07-16 02:30 11.66 58800 212000 (2011) 29600 (2002) 52600 32700 33900 35400 35900 42500 56500 59600 71100 115000
2020-07-16 01:30 11.69 58900 212000 (2011) 29600 (2002) 52600 32700 33900 35400 35900 42500 56500 59600 71100 115000
2020-07-16 00:30 11.72 59100 212000 (2011) 29600 (2002) 52600 32700 33900 35400 35900 42500 56500 59600 71100 115000
2020-07-15 23:30 11.77 59300 211000 (2011) 29800 (2002) 53500 32900 33600 35200 36200 43400 58500 61600 76700 112000
2020-07-15 22:30 11.78 59400 211000 (2011) 29800 (2002) 53500 32900 33600 35200 36200 43400 58500 61600 76700 112000
2020-07-15 21:30 11.77 59300 211000 (2011) 29800 (2002) 53500 32900 33600 35200 36200 43400 58500 61600 76700 112000
2020-07-15 20:30 11.76 59300 211000 (2011) 29800 (2002) 53500 32900 33600 35200 36200 43400 58500 61600 76700 112000
2020-07-15 19:30 11.74 59200 211000 (2011) 29800 (2002) 53500 32900 33600 35200 36200 43400 58500 61600 76700 112000
2020-07-15 18:30 11.71 59000 211000 (2011) 29800 (2002) 53500 32900 33600 35200 36200 43400 58500 61600 76700 112000
2020-07-15 17:30 11.63 58600 211000 (2011) 29800 (2002) 53500 32900 33600 35200 36200 43400 58500 61600 76700 112000
2020-07-15 16:30 11.54 58100 211000 (2011) 29800 (2002) 53500 32900 33600 35200 36200 43400 58500 61600 76700 112000
2020-07-15 15:30 11.44 57600 211000 (2011) 29800 (2002) 53500 32900 33600 35200 36200 43400 58500 61600 76700 112000
2020-07-15 14:30 11.34 57100 211000 (2011) 29800 (2002) 53500 32900 33600 35200 36200 43400 58500 61600 76700 112000
2020-07-15 13:30 11.25 56600 211000 (2011) 29800 (2002) 53500 32900 33600 35200 36200 43400 58500 61600 76700 112000
2020-07-15 12:30 11.21 56400 211000 (2011) 29800 (2002) 53500 32900 33600 35200 36200 43400 58500 61600 76700 112000
2020-07-15 11:30 11.14 56100 211000 (2011) 29800 (2002) 53500 32900 33600 35200 36200 43400 58500 61600 76700 112000
2020-07-15 10:30 11.10 55900 211000 (2011) 29800 (2002) 53500 32900 33600 35200 36200 43400 58500 61600 76700 112000
2020-07-15 09:30 11.03 55500 211000 (2011) 29800 (2002) 53500 32900 33600 35200 36200 43400 58500 61600 76700 112000
2020-07-15 08:30 10.97 55200 211000 (2011) 29800 (2002) 53500 32900 33600 35200 36200 43400 58500 61600 76700 112000
2020-07-15 07:30 10.89 54800 211000 (2011) 29800 (2002) 53500 32900 33600 35200 36200 43400 58500 61600 76700 112000
2020-07-15 06:30 10.78 54200 211000 (2011) 29800 (2002) 53500 32900 33600 35200 36200 43400 58500 61600 76700 112000
2020-07-15 05:30 10.72 53900 211000 (2011) 29800 (2002) 53500 32900 33600 35200 36200 43400 58500 61600 76700 112000
2020-07-15 04:30 10.72 53900 211000 (2011) 29800 (2002) 53500 32900 33600 35200 36200 43400 58500 61600 76700 112000
2020-07-15 03:30 10.65 53600 211000 (2011) 29800 (2002) 53500 32900 33600 35200 36200 43400 58500 61600 76700 112000
2020-07-15 02:30 10.63 53500 211000 (2011) 29800 (2002) 53500 32900 33600 35200 36200 43400 58500 61600 76700 112000
2020-07-15 01:30 10.66 53600 211000 (2011) 29800 (2002) 53500 32900 33600 35200 36200 43400 58500 61600 76700 112000
2020-07-15 00:30 10.68 53700 211000 (2011) 29800 (2002) 53500 32900 33600 35200 36200 43400 58500 61600 76700 112000
2020-07-14 23:30 10.72 53900 212000 (2011) 31500 (2002) 54000 32900 34300 35800 37100 44800 59800 63300 78600 108000
2020-07-14 22:30 10.74 54000 212000 (2011) 31500 (2002) 54000 32900 34300 35800 37100 44800 59800 63300 78600 108000
2020-07-14 21:30 10.76 54100 212000 (2011) 31500 (2002) 54000 32900 34300 35800 37100 44800 59800 63300 78600 108000
2020-07-14 20:30 10.80 54300 212000 (2011) 31500 (2002) 54000 32900 34300 35800 37100 44800 59800 63300 78600 108000
2020-07-14 19:30 10.80 54300 212000 (2011) 31500 (2002) 54000 32900 34300 35800 37100 44800 59800 63300 78600 108000
2020-07-14 18:30 10.80 54300 212000 (2011) 31500 (2002) 54000 32900 34300 35800 37100 44800 59800 63300 78600 108000
2020-07-14 17:30 10.83 54500 212000 (2011) 31500 (2002) 54000 32900 34300 35800 37100 44800 59800 63300 78600 108000
2020-07-14 16:30 10.83 54500 212000 (2011) 31500 (2002) 54000 32900 34300 35800 37100 44800 59800 63300 78600 108000
2020-07-14 15:30 10.83 54500 212000 (2011) 31500 (2002) 54000 32900 34300 35800 37100 44800 59800 63300 78600 108000
2020-07-14 14:30 10.82 54400 212000 (2011) 31500 (2002) 54000 32900 34300 35800 37100 44800 59800 63300 78600 108000
2020-07-14 13:30 10.80 54300 212000 (2011) 31500 (2002) 54000 32900 34300 35800 37100 44800 59800 63300 78600 108000
2020-07-14 12:30 10.81 54400 212000 (2011) 31500 (2002) 54000 32900 34300 35800 37100 44800 59800 63300 78600 108000
2020-07-14 11:30 10.81 54400 212000 (2011) 31500 (2002) 54000 32900 34300 35800 37100 44800 59800 63300 78600 108000
2020-07-14 10:30 10.82 54400 212000 (2011) 31500 (2002) 54000 32900 34300 35800 37100 44800 59800 63300 78600 108000
2020-07-14 09:30 10.83 54500 212000 (2011) 31500 (2002) 54000 32900 34300 35800 37100 44800 59800 63300 78600 108000
2020-07-14 08:30 10.86 54600 212000 (2011) 31500 (2002) 54000 32900 34300 35800 37100 44800 59800 63300 78600 108000
2020-07-14 07:30 10.85 54600 212000 (2011) 31500 (2002) 54000 32900 34300 35800 37100 44800 59800 63300 78600 108000
2020-07-14 06:30 10.87 54700 212000 (2011) 31500 (2002) 54000 32900 34300 35800 37100 44800 59800 63300 78600 108000
2020-07-14 05:30 10.87 54700 212000 (2011) 31500 (2002) 54000 32900 34300 35800 37100 44800 59800 63300 78600 108000
2020-07-14 04:30 10.87 54700 212000 (2011) 31500 (2002) 54000 32900 34300 35800 37100 44800 59800 63300 78600 108000
2020-07-14 03:30 10.89 54800 212000 (2011) 31500 (2002) 54000 32900 34300 35800 37100 44800 59800 63300 78600 108000
2020-07-14 02:30 10.93 55000 212000 (2011) 31500 (2002) 54000 32900 34300 35800 37100 44800 59800 63300 78600 108000
2020-07-14 01:30 10.97 55200 212000 (2011) 31500 (2002) 54000 32900 34300 35800 37100 44800 59800 63300 78600 108000
2020-07-14 00:30 11.00 55400 212000 (2011) 31500 (2002) 54000 32900 34300 35800 37100 44800 59800 63300 78600 108000

A total of 750 rows are displayed for years 1953 through 2019.